Observation data for Caprock Canyons on 02/16/2017      Previous  Date  Next       Current Mesonet Observations  Soil Data  Daily Summary Page  Observations in Plain Language
KQU1 160600Z 25005KT 05/M01 A301 RMK A01 T00451011  RH  067%=      5-min Rain = 0
KQU1 160601Z 24004KT 05/M01 A301 RMK A01 T00451011  RH  067%=      5-min Rain = 0
KQU1 160602Z 24004KT 04/M01 A301 RMK A01 T00441011  RH  067%=      5-min Rain = 0
KQU1 160603Z 23003KT 05/M01 A301 RMK A01 T00451011  RH  067%=      5-min Rain = 0
KQU1 160604Z 23003KT 04/M01 A301 RMK A01 T00441011  RH  067%=      5-min Rain = 0
KQU1 160605Z 23003KT 04/M01 A301 RMK A01 T00441011  RH  067%=      5-min Rain = 0
KQU1 160606Z 22003KT 04/M01 A301 RMK A01 T00441012  RH  067%=      5-min Rain = 0
KQU1 160607Z 21003KT 04/M01 A301 RMK A01 T00441012  RH  067%=      5-min Rain = 0
KQU1 160608Z 22003KT 04/M01 A301 RMK A01 T00431013  RH  067%=      5-min Rain = 0
KQU1 160609Z 21004KT 04/M01 A301 RMK A01 T00421013  RH  067%=      5-min Rain = 0
KQU1 160610Z 22005KT 04/M01 A301 RMK A01 T00411013  RH  067%=      5-min Rain = 0
KQU1 160611Z 22006KT 04/M01 A301 RMK A01 T00431013  RH  067%=      5-min Rain = 0
KQU1 160612Z 22006KT 04/M01 A301 RMK A01 T00441013  RH  066%=      5-min Rain = 0
KQU1 160613Z 22006KT 04/M01 A301 RMK A01 T00441013  RH  066%=      5-min Rain = 0
KQU1 160614Z 22006KT 04/M01 A301 RMK A01 T00441013  RH  066%=      5-min Rain = 0
KQU1 160615Z 22007KT 04/M01 A301 RMK A01 T00431013  RH  067%=      5-min Rain = 0
KQU1 160616Z 22007KT 04/M01 A301 RMK A01 T00431013  RH  067%=      5-min Rain = 0
KQU1 160617Z 23007KT 04/M01 A301 RMK A01 T00441011  RH  067%=      5-min Rain = 0
KQU1 160618Z 22007KT 05/M01 A301 RMK A01 T00461009  RH  067%=      5-min Rain = 0
KQU1 160619Z 22007KT 05/M01 A301 RMK A01 T00481008  RH  067%=      5-min Rain = 0
KQU1 160620Z 22007KT 05/M01 A301 RMK A01 T00501007  RH  066%=      5-min Rain = 0
KQU1 160621Z 22006KT 05/M01 A301 RMK A01 T00521007  RH  066%=      5-min Rain = 0
KQU1 160622Z 22007KT 05/M01 A301 RMK A01 T00531006  RH  066%=      5-min Rain = 0
KQU1 160623Z 21007KT 05/M01 A301 RMK A01 T00531005  RH  066%=      5-min Rain = 0
KQU1 160624Z 22006KT 05/M01 A301 RMK A01 T00531006  RH  066%=      5-min Rain = 0
KQU1 160625Z 22006KT 05/M01 A301 RMK A01 T00541006  RH  065%=      5-min Rain = 0
KQU1 160626Z 21007KT 06/M01 A301 RMK A01 T00551006  RH  065%=      5-min Rain = 0
KQU1 160627Z 21007KT 06/M01 A301 RMK A01 T00551006  RH  065%=      5-min Rain = 0
KQU1 160628Z 21006KT 06/M01 A301 RMK A01 T00551006  RH  065%=      5-min Rain = 0
KQU1 160629Z 21006KT 06/M01 A3009 RMK A01 T00551006  RH  065%=      5-min Rain = 0
KQU1 160630Z 21006KT 05/M01 A3009 RMK A01 T00541006  RH  065%=      5-min Rain = 0
KQU1 160631Z 20005KT 05/M01 A3009 RMK A01 T00541005  RH  066%=      5-min Rain = 0
KQU1 160632Z 20005KT 05/M01 A3009 RMK A01 T00521006  RH  066%=      5-min Rain = 0
KQU1 160633Z 20004KT 05/M01 A3009 RMK A01 T00481007  RH  067%=      5-min Rain = 0
KQU1 160634Z 20004KT 04/M01 A3009 RMK A01 T00441008  RH  069%=      5-min Rain = 0
KQU1 160635Z 21004KT 04/M01 A3009 RMK A01 T00401009  RH  070%=      5-min Rain = 0
KQU1 160636Z 21005KT 04/M01 A3009 RMK A01 T00371009  RH  072%=      5-min Rain = 0
KQU1 160637Z 21005KT 04/M01 A3009 RMK A01 T00351010  RH  073%=      5-min Rain = 0
KQU1 160638Z 22005KT 03/M01 A3009 RMK A01 T00331009  RH  074%=      5-min Rain = 0
KQU1 160639Z 22006KT 03/M01 A3009 RMK A01 T00341008  RH  074%=      5-min Rain = 0
KQU1 160640Z 22007KT 04/M01 A3009 RMK A01 T00371005  RH  074%=      5-min Rain = 0
KQU1 160641Z 22007KT 04/M00 A3009 RMK A01 T00431004  RH  072%=      5-min Rain = 0
KQU1 160642Z 23008KT 05/M00 A3009 RMK A01 T00491003  RH  069%=      5-min Rain = 0
KQU1 160643Z 22010KT 06/M00 A3009 RMK A01 T00551004  RH  066%=      5-min Rain = 0
KQU1 160644Z 22008KT 06/M00 A3009 RMK A01 T00591003  RH  065%=      5-min Rain = 0
KQU1 160645Z 23008KT 06/M00 A3009 RMK A01 T00611003  RH  064%=      5-min Rain = 0
KQU1 160646Z 23007KT 06/M00 A3009 RMK A01 T00621002  RH  064%=      5-min Rain = 0
KQU1 160647Z 23007KT 06/M00 A3009 RMK A01 T00621002  RH  063%=      5-min Rain = 0
KQU1 160648Z 24006KT 06/M00 A3009 RMK A01 T00621003  RH  063%=      5-min Rain = 0
KQU1 160649Z 24006KT 06/M00 A3009 RMK A01 T00621004  RH  063%=      5-min Rain = 0
KQU1 160650Z 24007KT 06/M01 A3009 RMK A01 T00621005  RH  062%=      5-min Rain = 0
KQU1 160651Z 25006KT 06/M01 A3009 RMK A01 T00631005  RH  062%=      5-min Rain = 0
KQU1 160652Z 24008KT 06/M01 A3009 RMK A01 T00631005  RH  062%=      5-min Rain = 0
KQU1 160653Z 24008KT 06/M01 A3009 RMK A01 T00641005  RH  061%=      5-min Rain = 0
KQU1 160654Z 24007KT 07/M01 A3009 RMK A01 T00661005  RH  061%=      5-min Rain = 0
KQU1 160655Z 24008KT 07/M01 A3009 RMK A01 T00671005  RH  060%=      5-min Rain = 0
KQU1 160656Z 24007KT 07/M01 A3009 RMK A01 T00681005  RH  060%=      5-min Rain = 0
KQU1 160657Z 25007KT 07/M00 A3009 RMK A01 T00681004  RH  060%=      5-min Rain = 0
KQU1 160658Z 24006KT 07/M00 A3009 RMK A01 T00671004  RH  060%=      5-min Rain = 0
KQU1 160659Z 24006KT 07/M00 A3009 RMK A01 T00671004  RH  060%=      5-min Rain = 0
KQU1 160700Z 24007KT 07/M00 A3009 RMK A01 T00671004  RH  061%=      5-min Rain = 0
KQU1 160701Z 24007KT 07/M00 A3009 RMK A01 T00671004  RH  061%=      5-min Rain = 0
KQU1 160702Z 24007KT 07/M00 A3009 RMK A01 T00671003  RH  061%=      5-min Rain = 0
KQU1 160703Z 24010KT 07/M00 A3008 RMK A01 T00681004  RH  060%=      5-min Rain = 0
KQU1 160704Z 24008KT 07/M00 A3008 RMK A01 T00701003  RH  060%=      5-min Rain = 0
KQU1 160705Z 24009KT 07/M00 A3008 RMK A01 T00701004  RH  059%=      5-min Rain = 0
KQU1 160706Z 25008KT 07/M00 A3008 RMK A01 T00711004  RH  059%=      5-min Rain = 0
KQU1 160707Z 24008KT 07/M00 A3008 RMK A01 T00711004  RH  059%=      5-min Rain = 0
KQU1 160708Z 24007KT 07/M00 A3008 RMK A01 T00721004  RH  059%=      5-min Rain = 0
KQU1 160709Z 24009KT 07/M01 A3008 RMK A01 T00721005  RH  058%=      5-min Rain = 0
KQU1 160710Z 24009KT 07/M01 A3008 RMK A01 T00721005  RH  058%=      5-min Rain = 0
KQU1 160711Z 24010KT 07/M01 A3008 RMK A01 T00731005  RH  058%=      5-min Rain = 0
KQU1 160712Z 24010KT 07/M01 A3008 RMK A01 T00731006  RH  057%=      5-min Rain = 0
KQU1 160713Z 24009KT 07/M01 A3008 RMK A01 T00741006  RH  057%=      5-min Rain = 0
KQU1 160714Z 25009KT 07/M01 A3008 RMK A01 T00731006  RH  057%=      5-min Rain = 0
KQU1 160715Z 24008KT 07/M01 A3008 RMK A01 T00731007  RH  057%=      5-min Rain = 0
KQU1 160716Z 24009KT 07/M01 A3008 RMK A01 T00721007  RH  057%=      5-min Rain = 0
KQU1 160717Z 24009KT 07/M01 A3008 RMK A01 T00721007  RH  057%=      5-min Rain = 0
KQU1 160718Z 25009KT 07/M01 A3008 RMK A01 T00721006  RH  058%=      5-min Rain = 0
KQU1 160719Z 24009KT 07/M01 A3008 RMK A01 T00711006  RH  058%=      5-min Rain = 0
KQU1 160720Z 25009KT 07/M01 A3008 RMK A01 T00711006  RH  058%=      5-min Rain = 0
KQU1 160721Z 24008KT 07/M01 A3008 RMK A01 T00701006  RH  058%=      5-min Rain = 0
KQU1 160722Z 24010KT 07/M01 A3008 RMK A01 T00701007  RH  058%=      5-min Rain = 0
KQU1 160723Z 24009KT 07/M01 A3008 RMK A01 T00691007  RH  058%=      5-min Rain = 0
KQU1 160724Z 24009KT 07/M01 A3008 RMK A01 T00701007  RH  058%=      5-min Rain = 0
KQU1 160725Z 24009KT 07/M01 A3008 RMK A01 T00691007  RH  058%=      5-min Rain = 0
KQU1 160726Z 24009KT 07/M01 A3008 RMK A01 T00691008  RH  058%=      5-min Rain = 0
KQU1 160727Z 24008KT 07/M01 A3007 RMK A01 T00691007  RH  058%=      5-min Rain = 0
KQU1 160728Z 24008KT 07/M01 A3007 RMK A01 T00691007  RH  058%=      5-min Rain = 0
KQU1 160729Z 24009KT 07/M01 A3007 RMK A01 T00691007  RH  058%=      5-min Rain = 0
KQU1 160730Z 24010KT 07/M01 A3007 RMK A01 T00691009  RH  058%=      5-min Rain = 0
KQU1 160731Z 24010KT 07/M01 A3007 RMK A01 T00701008  RH  058%=      5-min Rain = 0
KQU1 160732Z 24010KT 07/M01 A3007 RMK A01 T00701009  RH  057%=      5-min Rain = 0
KQU1 160733Z 24009KT 07/M01 A3007 RMK A01 T00701008  RH  057%=      5-min Rain = 0
KQU1 160734Z 25010KT 07/M01 A3007 RMK A01 T00701009  RH  057%=      5-min Rain = 0
KQU1 160735Z 25011KT 07/M01 A3007 RMK A01 T00701009  RH  057%=      5-min Rain = 0
KQU1 160736Z 25011KT 07/M01 A3007 RMK A01 T00701009  RH  057%=      5-min Rain = 0
KQU1 160737Z 25011KT 07/M01 A3007 RMK A01 T00711009  RH  057%=      5-min Rain = 0
KQU1 160738Z 24011KT 07/M01 A3007 RMK A01 T00711010  RH  057%=      5-min Rain = 0
KQU1 160739Z 25010KT 07/M01 A3007 RMK A01 T00711009  RH  057%=      5-min Rain = 0
KQU1 160740Z 25010KT 07/M01 A3007 RMK A01 T00701009  RH  057%=      5-min Rain = 0
KQU1 160741Z 25012KT 07/M01 A3007 RMK A01 T00701010  RH  056%=      5-min Rain = 0
KQU1 160742Z 25011KT 07/M01 A3007 RMK A01 T00711010  RH  056%=      5-min Rain = 0
KQU1 160743Z 24011KT 07/M01 A3007 RMK A01 T00711011  RH  056%=      5-min Rain = 0
KQU1 160744Z 24011KT 07/M01 A3007 RMK A01 T00721011  RH  056%=      5-min Rain = 0
KQU1 160745Z 24012KT 07/M01 A3007 RMK A01 T00721011  RH  055%=      5-min Rain = 0
KQU1 160746Z 25011KT 07/M01 A3007 RMK A01 T00731012  RH  055%=      5-min Rain = 0
KQU1 160747Z 24010KT 07/M01 A3007 RMK A01 T00731011  RH  055%=      5-min Rain = 0
KQU1 160748Z 24011KT 07/M01 A3007 RMK A01 T00731011  RH  055%=      5-min Rain = 0
KQU1 160749Z 24010KT 07/M01 A3007 RMK A01 T00731011  RH  055%=      5-min Rain = 0
KQU1 160750Z 24010KT 07/M01 A3007 RMK A01 T00721011  RH  055%=      5-min Rain = 0
KQU1 160751Z 24008KT 07/M01 A3007 RMK A01 T00721011  RH  056%=      5-min Rain = 0
KQU1 160752Z 24009KT 07/M01 A3007 RMK A01 T00711012  RH  055%=      5-min Rain = 0
KQU1 160753Z 24009KT 07/M01 A3007 RMK A01 T00711012  RH  056%=      5-min Rain = 0
KQU1 160754Z 24009KT 07/M01 A3007 RMK A01 T00711012  RH  056%=      5-min Rain = 0
KQU1 160755Z 24009KT 07/M01 A3007 RMK A01 T00711012  RH  056%=      5-min Rain = 0
KQU1 160756Z 24010KT 07/M01 A3007 RMK A01 T00711012  RH  056%=      5-min Rain = 0
KQU1 160757Z 24011KT 07/M01 A3007 RMK A01 T00711012  RH  056%=      5-min Rain = 0
KQU1 160758Z 24009KT 07/M01 A3007 RMK A01 T00711012  RH  056%=      5-min Rain = 0
KQU1 160759Z 24011KT 07/M01 A3007 RMK A01 T00711012  RH  055%=      5-min Rain = 0
KQU1 160800Z 24011KT 07/M01 A3007 RMK A01 T00721012  RH  055%=      5-min Rain = 0
KQU1 160801Z 24010KT 07/M01 A3007 RMK A01 T00721012  RH  055%=      5-min Rain = 0
KQU1 160802Z 24011KT 07/M01 A3007 RMK A01 T00711012  RH  055%=      5-min Rain = 0
KQU1 160803Z 24009KT 07/M01 A3007 RMK A01 T00711012  RH  055%=      5-min Rain = 0
KQU1 160804Z 24008KT 07/M01 A3007 RMK A01 T00701012  RH  056%=      5-min Rain = 0
KQU1 160805Z 24008KT 07/M01 A3007 RMK A01 T00691012  RH  056%=      5-min Rain = 0
KQU1 160806Z 24008KT 07/M01 A3007 RMK A01 T00681012  RH  057%=      5-min Rain = 0
KQU1 160807Z 24008KT 07/M01 A3007 RMK A01 T00671012  RH  057%=      5-min Rain = 0
KQU1 160808Z 24007KT 07/M01 A3007 RMK A01 T00661012  RH  057%=      5-min Rain = 0
KQU1 160809Z 24007KT 07/M01 A3007 RMK A01 T00661013  RH  057%=      5-min Rain = 0
KQU1 160810Z 24007KT 07/M01 A3007 RMK A01 T00661013  RH  057%=      5-min Rain = 0
KQU1 160811Z 24008KT 07/M01 A3007 RMK A01 T00651012  RH  058%=      5-min Rain = 0
KQU1 160812Z 24008KT 07/M01 A3007 RMK A01 T00651013  RH  057%=      5-min Rain = 0
KQU1 160813Z 23008KT 07/M01 A3007 RMK A01 T00651012  RH  058%=      5-min Rain = 0
KQU1 160814Z 23008KT 07/M01 A3007 RMK A01 T00651013  RH  058%=      5-min Rain = 0
KQU1 160815Z 23009KT 07/M01 A3007 RMK A01 T00651012  RH  058%=      5-min Rain = 0
KQU1 160816Z 24009KT 07/M01 A3007 RMK A01 T00651012  RH  058%=      5-min Rain = 0
KQU1 160817Z 23012KT 07/M01 A3007 RMK A01 T00661013  RH  057%=      5-min Rain = 0
KQU1 160818Z 24012KT 07/M01 A3007 RMK A01 T00671013  RH  057%=      5-min Rain = 0
KQU1 160819Z 23012KT 07/M01 A3007 RMK A01 T00681014  RH  056%=      5-min Rain = 0
KQU1 160820Z 23011KT 07/M01 A3007 RMK A01 T00691013  RH  056%=      5-min Rain = 0
KQU1 160821Z 24011KT 07/M01 A3007 RMK A01 T00681014  RH  056%=      5-min Rain = 0
KQU1 160822Z 23011KT 07/M01 A3007 RMK A01 T00681014  RH  056%=      5-min Rain = 0
KQU1 160823Z 23010KT 07/M01 A3007 RMK A01 T00681014  RH  056%=      5-min Rain = 0
KQU1 160824Z 23012KT 07/M02 A3006 RMK A01 T00681015  RH  055%=      5-min Rain = 0
KQU1 160825Z 24010KT 07/M02 A3006 RMK A01 T00681015  RH  055%=      5-min Rain = 0
KQU1 160826Z 23011KT 07/M02 A3006 RMK A01 T00691016  RH  055%=      5-min Rain = 0
KQU1 160827Z 24011KT 07/M02 A3006 RMK A01 T00691016  RH  055%=      5-min Rain = 0
KQU1 160828Z 24011KT 07/M02 A3006 RMK A01 T00691017  RH  054%=      5-min Rain = 0
KQU1 160829Z 24011KT 07/M02 A3006 RMK A01 T00691017  RH  054%=      5-min Rain = 0
KQU1 160830Z 24010KT 07/M02 A3006 RMK A01 T00691018  RH  054%=      5-min Rain = 0
KQU1 160831Z 24010KT 07/M02 A3006 RMK A01 T00691017  RH  054%=      5-min Rain = 0
KQU1 160832Z 24011KT 07/M02 A3006 RMK A01 T00691019  RH  054%=      5-min Rain = 0
KQU1 160833Z 24010KT 07/M02 A3006 RMK A01 T00691018  RH  054%=      5-min Rain = 0
KQU1 160834Z 24010KT 07/M02 A3006 RMK A01 T00691019  RH  053%=      5-min Rain = 0
KQU1 160835Z 24009KT 07/M02 A3006 RMK A01 T00691019  RH  053%=      5-min Rain = 0
KQU1 160836Z 24010KT 07/M02 A3006 RMK A01 T00691019  RH  053%=      5-min Rain = 0
KQU1 160837Z 24009KT 07/M02 A3006 RMK A01 T00691019  RH  054%=      5-min Rain = 0
KQU1 160838Z 24009KT 07/M02 A3006 RMK A01 T00681019  RH  054%=      5-min Rain = 0
KQU1 160839Z 24010KT 07/M02 A3006 RMK A01 T00691021  RH  053%=      5-min Rain = 0
KQU1 160840Z 24010KT 07/M02 A3006 RMK A01 T00691020  RH  053%=      5-min Rain = 0
KQU1 160841Z 24010KT 07/M02 A3006 RMK A01 T00701021  RH  052%=      5-min Rain = 0
KQU1 160842Z 24009KT 07/M02 A3006 RMK A01 T00691021  RH  053%=      5-min Rain = 0
KQU1 160843Z 24009KT 07/M02 A3006 RMK A01 T00691021  RH  053%=      5-min Rain = 0
KQU1 160844Z 24007KT 07/M02 A3006 RMK A01 T00681022  RH  053%=      5-min Rain = 0
KQU1 160845Z 24007KT 07/M02 A3006 RMK A01 T00681023  RH  052%=      5-min Rain = 0
KQU1 160846Z 24007KT 07/M02 A3006 RMK A01 T00671023  RH  053%=      5-min Rain = 0
KQU1 160847Z 25010KT 07/M02 A3006 RMK A01 T00671022  RH  053%=      5-min Rain = 0
KQU1 160848Z 24010KT 07/M02 A3006 RMK A01 T00671022  RH  053%=      5-min Rain = 0
KQU1 160849Z 24011KT 07/M02 A3006 RMK A01 T00671022  RH  053%=      5-min Rain = 0
KQU1 160850Z 25013KT 07/M02 A3006 RMK A01 T00671022  RH  053%=      5-min Rain = 0
KQU1 160851Z 24010KT 07/M02 A3006 RMK A01 T00671021  RH  053%=      5-min Rain = 0
KQU1 160852Z 25012KT 07/M02 A3006 RMK A01 T00671022  RH  053%=      5-min Rain = 0
KQU1 160853Z 24010KT 07/M02 A3006 RMK A01 T00671022  RH  053%=      5-min Rain = 0
KQU1 160854Z 25010KT 07/M02 A3006 RMK A01 T00661023  RH  053%=      5-min Rain = 0
KQU1 160855Z 25010KT 07/M02 A3005 RMK A01 T00671023  RH  053%=      5-min Rain = 0
KQU1 160856Z 25010KT 07/M02 A3005 RMK A01 T00661023  RH  053%=      5-min Rain = 0
KQU1 160857Z 26011KT 07/M02 A3005 RMK A01 T00661022  RH  053%=      5-min Rain = 0
KQU1 160858Z 26012KT 07/M02 A3005 RMK A01 T00651023  RH  053%=      5-min Rain = 0
KQU1 160859Z 26010KT 07/M02 A3005 RMK A01 T00651022  RH  054%=      5-min Rain = 0
KQU1 160900Z 26011KT 07/M02 A3005 RMK A01 T00651022  RH  054%=      5-min Rain = 0
KQU1 160901Z 26009KT 06/M02 A3005 RMK A01 T00641021  RH  055%=      5-min Rain = 0
KQU1 160902Z 27012G17KT 06/M02 A3005 RMK A01 T00631022  RH  054%=      5-min Rain = 0
KQU1 160903Z 27009KT 06/M02 A3005 RMK A01 T00621021  RH  055%=      5-min Rain = 0
KQU1 160904Z 27009KT 06/M02 A3005 RMK A01 T00611021  RH  056%=      5-min Rain = 0
KQU1 160905Z 27010KT 06/M02 A3005 RMK A01 T00601021  RH  056%=      5-min Rain = 0
KQU1 160906Z 27011KT 06/M02 A3005 RMK A01 T00591021  RH  057%=      5-min Rain = 0
KQU1 160907Z 27011KT 06/M02 A3005 RMK A01 T00581021  RH  057%=      5-min Rain = 0
KQU1 160908Z 27011KT 06/M02 A3005 RMK A01 T00571020  RH  058%=      5-min Rain = 0
KQU1 160909Z 27012KT 06/M02 A3005 RMK A01 T00571021  RH  057%=      5-min Rain = 0
KQU1 160910Z 27012KT 06/M02 A3005 RMK A01 T00571021  RH  057%=      5-min Rain = 0
KQU1 160911Z 27012KT 06/M02 A3005 RMK A01 T00571021  RH  057%=      5-min Rain = 0
KQU1 160912Z 27013KT 06/M02 A3005 RMK A01 T00571021  RH  057%=      5-min Rain = 0
KQU1 160913Z 27011KT 06/M02 A3005 RMK A01 T00571021  RH  057%=      5-min Rain = 0
KQU1 160914Z 27011KT 06/M02 A3005 RMK A01 T00561021  RH  058%=      5-min Rain = 0
KQU1 160915Z 28011KT 06/M02 A3005 RMK A01 T00561021  RH  058%=      5-min Rain = 0
KQU1 160916Z 27011KT 06/M02 A3005 RMK A01 T00551021  RH  058%=      5-min Rain = 0
KQU1 160917Z 27012KT 06/M02 A3005 RMK A01 T00551021  RH  058%=      5-min Rain = 0
KQU1 160918Z 27011KT 06/M02 A3004 RMK A01 T00551022  RH  058%=      5-min Rain = 0
KQU1 160919Z 27014G19KT 06/M02 A3004 RMK A01 T00551022  RH  057%=      5-min Rain = 0
KQU1 160920Z 27014KT 06/M02 A3004 RMK A01 T00561022  RH  057%=      5-min Rain = 0
KQU1 160921Z 28016KT 06/M02 A3004 RMK A01 T00571024  RH  056%=      5-min Rain = 0
KQU1 160922Z 27015KT 06/M02 A3004 RMK A01 T00581024  RH  056%=      5-min Rain = 0
KQU1 160923Z 27014KT 06/M02 A3004 RMK A01 T00581023  RH  056%=      5-min Rain = 0
KQU1 160924Z 27014KT 06/M02 A3004 RMK A01 T00581024  RH  056%=      5-min Rain = 0
KQU1 160925Z 27014KT 06/M02 A3004 RMK A01 T00581024  RH  055%=      5-min Rain = 0
KQU1 160926Z 27013KT 06/M02 A3004 RMK A01 T00581024  RH  056%=      5-min Rain = 0
KQU1 160927Z 27015KT 06/M02 A3004 RMK A01 T00581024  RH  055%=      5-min Rain = 0
KQU1 160928Z 27013KT 06/M03 A3004 RMK A01 T00591025  RH  055%=      5-min Rain = 0
KQU1 160929Z 27013KT 06/M03 A3004 RMK A01 T00591025  RH  055%=      5-min Rain = 0
KQU1 160930Z 27015KT 06/M03 A3004 RMK A01 T00601025  RH  054%=      5-min Rain = 0
KQU1 160931Z 27015KT 06/M03 A3004 RMK A01 T00601025  RH  054%=      5-min Rain = 0
KQU1 160932Z 27016KT 06/M03 A3004 RMK A01 T00611026  RH  053%=      5-min Rain = 0
KQU1 160933Z 27014KT 06/M03 A3004 RMK A01 T00621026  RH  053%=      5-min Rain = 0
KQU1 160934Z 27013KT 06/M03 A3004 RMK A01 T00621026  RH  053%=      5-min Rain = 0
KQU1 160935Z 28014KT 06/M03 A3004 RMK A01 T00611026  RH  054%=      5-min Rain = 0
KQU1 160936Z 27015KT 06/M03 A3004 RMK A01 T00611026  RH  054%=      5-min Rain = 0
KQU1 160937Z 27014KT 06/M03 A3004 RMK A01 T00611026  RH  054%=      5-min Rain = 0
KQU1 160938Z 27012KT 06/M03 A3004 RMK A01 T00601026  RH  054%=      5-min Rain = 0
KQU1 160939Z 27011KT 06/M03 A3004 RMK A01 T00601025  RH  054%=      5-min Rain = 0
KQU1 160940Z 27014KT 06/M03 A3004 RMK A01 T00591026  RH  054%=      5-min Rain = 0
KQU1 160941Z 27013KT 06/M03 A3004 RMK A01 T00591025  RH  055%=      5-min Rain = 0
KQU1 160942Z 27011KT 06/M03 A3004 RMK A01 T00581025  RH  055%=      5-min Rain = 0
KQU1 160943Z 27012KT 06/M03 A3004 RMK A01 T00581025  RH  055%=      5-min Rain = 0
KQU1 160944Z 27014KT 06/M03 A3004 RMK A01 T00581026  RH  055%=      5-min Rain = 0
KQU1 160945Z 27015KT 06/M03 A3004 RMK A01 T00581026  RH  055%=      5-min Rain = 0
KQU1 160946Z 27013KT 06/M03 A3004 RMK A01 T00591026  RH  054%=      5-min Rain = 0
KQU1 160947Z 27011KT 06/M03 A3004 RMK A01 T00591027  RH  054%=      5-min Rain = 0
KQU1 160948Z 27012KT 06/M03 A3004 RMK A01 T00591027  RH  054%=      5-min Rain = 0
KQU1 160949Z 27013KT 06/M03 A3004 RMK A01 T00581026  RH  055%=      5-min Rain = 0
KQU1 160950Z 27014KT 06/M03 A3004 RMK A01 T00581026  RH  055%=      5-min Rain = 0
KQU1 160951Z 27014KT 06/M03 A3004 RMK A01 T00581026  RH  055%=      5-min Rain = 0
KQU1 160952Z 27015KT 06/M03 A3004 RMK A01 T00581027  RH  055%=      5-min Rain = 0
KQU1 160953Z 27013KT 06/M03 A3004 RMK A01 T00581026  RH  055%=      5-min Rain = 0
KQU1 160954Z 27013KT 06/M03 A3004 RMK A01 T00561025  RH  056%=      5-min Rain = 0
KQU1 160955Z 27015KT 06/M03 A3004 RMK A01 T00561026  RH  056%=      5-min Rain = 0
KQU1 160956Z 27016KT 06/M03 A3004 RMK A01 T00551026  RH  056%=      5-min Rain = 0
KQU1 160957Z 27016KT 06/M03 A3004 RMK A01 T00551026  RH  056%=      5-min Rain = 0
KQU1 160958Z 27014KT 05/M03 A3003 RMK A01 T00541026  RH  056%=      5-min Rain = 0
KQU1 160959Z 27015KT 05/M03 A3004 RMK A01 T00531025  RH  057%=      5-min Rain = 0
KQU1 161000Z 27015KT 05/M03 A3004 RMK A01 T00531025  RH  057%=      5-min Rain = 0
KQU1 161001Z 27015KT 05/M03 A3003 RMK A01 T00531026  RH  057%=      5-min Rain = 0
KQU1 161002Z 27014KT 05/M03 A3003 RMK A01 T00521025  RH  057%=      5-min Rain = 0
KQU1 161003Z 27015KT 05/M03 A3003 RMK A01 T00511025  RH  058%=      5-min Rain = 0
KQU1 161004Z 27014KT 05/M03 A3003 RMK A01 T00511025  RH  058%=      5-min Rain = 0
KQU1 161005Z 27014KT 05/M03 A3003 RMK A01 T00501025  RH  059%=      5-min Rain = 0
KQU1 161006Z 27016KT 05/M03 A3003 RMK A01 T00491025  RH  059%=      5-min Rain = 0
KQU1 161007Z 27014KT 05/M03 A3003 RMK A01 T00491025  RH  059%=      5-min Rain = 0
KQU1 161008Z 27015KT 05/M03 A3003 RMK A01 T00491025  RH  059%=      5-min Rain = 0
KQU1 161009Z 27013KT 05/M03 A3003 RMK A01 T00481025  RH  059%=      5-min Rain = 0
KQU1 161010Z 27015KT 05/M02 A3003 RMK A01 T00481024  RH  059%=      5-min Rain = 0
KQU1 161011Z 27016KT 05/M02 A3003 RMK A01 T00471024  RH  060%=      5-min Rain = 0
KQU1 161012Z 27015KT 05/M03 A3003 RMK A01 T00471025  RH  060%=      5-min Rain = 0
KQU1 161013Z 27015KT 05/M03 A3003 RMK A01 T00471025  RH  060%=      5-min Rain = 0
KQU1 161014Z 27015KT 05/M02 A3003 RMK A01 T00471024  RH  060%=      5-min Rain = 0
KQU1 161015Z 27016KT 05/M03 A3003 RMK A01 T00471025  RH  060%=      5-min Rain = 0
KQU1 161016Z 27014KT 05/M03 A3003 RMK A01 T00471025  RH  059%=      5-min Rain = 0
KQU1 161017Z 27015KT 05/M03 A3003 RMK A01 T00481025  RH  059%=      5-min Rain = 0
KQU1 161018Z 27016KT 05/M03 A3003 RMK A01 T00481025  RH  059%=      5-min Rain = 0
KQU1 161019Z 27015KT 05/M03 A3003 RMK A01 T00481025  RH  059%=      5-min Rain = 0
KQU1 161020Z 27014KT 05/M03 A3003 RMK A01 T00471025  RH  059%=      5-min Rain = 0
KQU1 161021Z 27015KT 05/M03 A3003 RMK A01 T00471025  RH  060%=      5-min Rain = 0
KQU1 161022Z 28013KT 05/M03 A3003 RMK A01 T00471025  RH  060%=      5-min Rain = 0
KQU1 161023Z 27012KT 05/M02 A3003 RMK A01 T00461024  RH  060%=      5-min Rain = 0
KQU1 161024Z 27014KT 05/M03 A3003 RMK A01 T00461025  RH  060%=      5-min Rain = 0
KQU1 161025Z 27014KT 05/M03 A3003 RMK A01 T00471025  RH  060%=      5-min Rain = 0
KQU1 161026Z 27015KT 05/M03 A3003 RMK A01 T00461025  RH  060%=      5-min Rain = 0
KQU1 161027Z 27015KT 05/M03 A3003 RMK A01 T00471025  RH  059%=      5-min Rain = 0
KQU1 161028Z 27015KT 05/M03 A3003 RMK A01 T00471025  RH  059%=      5-min Rain = 0
KQU1 161029Z 27014KT 05/M03 A3003 RMK A01 T00471025  RH  060%=      5-min Rain = 0
KQU1 161030Z 27015KT 05/M03 A3003 RMK A01 T00461025  RH  060%=      5-min Rain = 0
KQU1 161031Z 27016KT 05/M03 A3003 RMK A01 T00461025  RH  060%=      5-min Rain = 0
KQU1 161032Z 27016KT 05/M03 A3003 RMK A01 T00461025  RH  060%=      5-min Rain = 0
KQU1 161033Z 27015KT 05/M03 A3003 RMK A01 T00461025  RH  060%=      5-min Rain = 0
KQU1 161034Z 27014KT 05/M03 A3003 RMK A01 T00451025  RH  061%=      5-min Rain = 0
KQU1 161035Z 27014KT 05/M02 A3003 RMK A01 T00451024  RH  061%=      5-min Rain = 0
KQU1 161036Z 27016KT 05/M03 A3003 RMK A01 T00451025  RH  060%=      5-min Rain = 0
KQU1 161037Z 27016KT 05/M03 A3003 RMK A01 T00471026  RH  059%=      5-min Rain = 0
KQU1 161038Z 27015KT 05/M03 A3003 RMK A01 T00471025  RH  060%=      5-min Rain = 0
KQU1 161039Z 27016KT 05/M03 A3003 RMK A01 T00461025  RH  060%=      5-min Rain = 0
KQU1 161040Z 27017KT 05/M03 A3003 RMK A01 T00471025  RH  059%=      5-min Rain = 0
KQU1 161041Z 27014G19KT 05/M03 A3003 RMK A01 T00481025  RH  059%=      5-min Rain = 0
KQU1 161042Z 27016KT 05/M03 A3003 RMK A01 T00481026  RH  059%=      5-min Rain = 0
KQU1 161043Z 27016KT 05/M03 A3003 RMK A01 T00491026  RH  058%=      5-min Rain = 0
KQU1 161044Z 27016KT 05/M03 A3003 RMK A01 T00501026  RH  058%=      5-min Rain = 0
KQU1 161045Z 27017KT 05/M03 A3003 RMK A01 T00511026  RH  058%=      5-min Rain = 0
KQU1 161046Z 27015KT 05/M03 A3003 RMK A01 T00511026  RH  057%=      5-min Rain = 0
KQU1 161047Z 27016KT 05/M03 A3003 RMK A01 T00521026  RH  057%=      5-min Rain = 0
KQU1 161048Z 27017KT 05/M03 A3003 RMK A01 T00521026  RH  057%=      5-min Rain = 0
KQU1 161049Z 27016KT 05/M03 A3003 RMK A01 T00531026  RH  057%=      5-min Rain = 0
KQU1 161050Z 27017KT 05/M03 A3003 RMK A01 T00541026  RH  056%=      5-min Rain = 0
KQU1 161051Z 27016KT 05/M03 A3003 RMK A01 T00541026  RH  056%=      5-min Rain = 0
KQU1 161052Z 27016KT 05/M03 A3003 RMK A01 T00541026  RH  056%=      5-min Rain = 0
KQU1 161053Z 27017KT 06/M03 A3003 RMK A01 T00551027  RH  055%=      5-min Rain = 0
KQU1 161054Z 27015KT 06/M03 A3003 RMK A01 T00551026  RH  056%=      5-min Rain = 0
KQU1 161055Z 27014KT 06/M03 A3003 RMK A01 T00551027  RH  056%=      5-min Rain = 0
KQU1 161056Z 27015KT 06/M03 A3003 RMK A01 T00551026  RH  056%=      5-min Rain = 0
KQU1 161057Z 26014KT 06/M03 A3003 RMK A01 T00551026  RH  056%=      5-min Rain = 0
KQU1 161058Z 27017KT 06/M03 A3003 RMK A01 T00551027  RH  055%=      5-min Rain = 0
KQU1 161059Z 27015KT 06/M03 A3003 RMK A01 T00551026  RH  056%=      5-min Rain = 0
KQU1 161100Z 27014KT 06/M03 A3003 RMK A01 T00551026  RH  056%=      5-min Rain = 0
KQU1 161101Z 27016KT 06/M03 A3003 RMK A01 T00551026  RH  056%=      5-min Rain = 0
KQU1 161102Z 27016KT 06/M03 A3003 RMK A01 T00551027  RH  056%=      5-min Rain = 0
KQU1 161103Z 27015KT 06/M03 A3003 RMK A01 T00561027  RH  055%=      5-min Rain = 0
KQU1 161104Z 27016KT 06/M03 A3002 RMK A01 T00561027  RH  055%=      5-min Rain = 0
KQU1 161105Z 27015KT 06/M03 A3002 RMK A01 T00561027  RH  055%=      5-min Rain = 0
KQU1 161106Z 27016KT 06/M03 A3002 RMK A01 T00561027  RH  055%=      5-min Rain = 0
KQU1 161107Z 27015G20KT 06/M03 A3002 RMK A01 T00561027  RH  055%=      5-min Rain = 0
KQU1 161108Z 27016KT 06/M03 A3002 RMK A01 T00561027  RH  055%=      5-min Rain = 0
KQU1 161109Z 27016KT 06/M03 A3002 RMK A01 T00561027  RH  055%=      5-min Rain = 0
KQU1 161110Z 27017KT 06/M03 A3002 RMK A01 T00561027  RH  055%=      5-min Rain = 0
KQU1 161111Z 27016KT 06/M03 A3002 RMK A01 T00561027  RH  055%=      5-min Rain = 0
KQU1 161112Z 27016KT 06/M03 A3002 RMK A01 T00561027  RH  055%=      5-min Rain = 0
KQU1 161113Z 27017KT 06/M03 A3002 RMK A01 T00571027  RH  055%=      5-min Rain = 0
KQU1 161114Z 27016G21KT 06/M03 A3002 RMK A01 T00561027  RH  055%=      5-min Rain = 0
KQU1 161115Z 27016KT 06/M03 A3002 RMK A01 T00561027  RH  055%=      5-min Rain = 0
KQU1 161116Z 27017KT 06/M03 A3002 RMK A01 T00551027  RH  055%=      5-min Rain = 0
KQU1 161117Z 27017KT 06/M03 A3002 RMK A01 T00551028  RH  055%=      5-min Rain = 0
KQU1 161118Z 27017KT 06/M03 A3002 RMK A01 T00551027  RH  055%=      5-min Rain = 0
KQU1 161119Z 27018G24KT 06/M03 A3002 RMK A01 T00551028  RH  055%=      5-min Rain = 0
KQU1 161120Z 27017KT 05/M03 A3002 RMK A01 T00541028  RH  055%=      5-min Rain = 0
KQU1 161121Z 27016KT 05/M03 A3002 RMK A01 T00531027  RH  056%=      5-min Rain = 0
KQU1 161122Z 27017KT 05/M03 A3002 RMK A01 T00521028  RH  056%=      5-min Rain = 0
KQU1 161123Z 27017KT 05/M03 A3002 RMK A01 T00521027  RH  056%=      5-min Rain = 0
KQU1 161124Z 27015KT 05/M03 A3002 RMK A01 T00521028  RH  057%=      5-min Rain = 0
KQU1 161125Z 27018KT 05/M03 A3002 RMK A01 T00521028  RH  056%=      5-min Rain = 0
KQU1 161126Z 27016KT 05/M03 A3002 RMK A01 T00521028  RH  056%=      5-min Rain = 0
KQU1 161127Z 27017KT 05/M03 A3002 RMK A01 T00511027  RH  057%=      5-min Rain = 0
KQU1 161128Z 27018KT 05/M03 A3002 RMK A01 T00521028  RH  056%=      5-min Rain = 0
KQU1 161129Z 27017KT 05/M03 A3002 RMK A01 T00521028  RH  056%=      5-min Rain = 0
KQU1 161130Z 27016KT 05/M03 A3002 RMK A01 T00521028  RH  056%=      5-min Rain = 0
KQU1 161131Z 27016KT 05/M03 A3002 RMK A01 T00521028  RH  056%=      5-min Rain = 0
KQU1 161132Z 27014KT 05/M03 A3002 RMK A01 T00521028  RH  056%=      5-min Rain = 0
KQU1 161133Z 27015KT 05/M03 A3002 RMK A01 T00521028  RH  056%=      5-min Rain = 0
KQU1 161134Z 27015KT 05/M03 A3002 RMK A01 T00521028  RH  056%=      5-min Rain = 0
KQU1 161135Z 27016KT 05/M03 A3002 RMK A01 T00521029  RH  056%=      5-min Rain = 0
KQU1 161136Z 27015KT 05/M03 A3002 RMK A01 T00531029  RH  055%=      5-min Rain = 0
KQU1 161137Z 27016KT 05/M03 A3002 RMK A01 T00541029  RH  055%=      5-min Rain = 0
KQU1 161138Z 27015KT 05/M03 A3002 RMK A01 T00541029  RH  055%=      5-min Rain = 0
KQU1 161139Z 27017KT 06/M03 A3002 RMK A01 T00551029  RH  055%=      5-min Rain = 0
KQU1 161140Z 27015KT 06/M03 A3002 RMK A01 T00551029  RH  055%=      5-min Rain = 0
KQU1 161141Z 27015KT 06/M03 A3002 RMK A01 T00551029  RH  055%=      5-min Rain = 0
KQU1 161142Z 27016KT 06/M03 A3002 RMK A01 T00551029  RH  055%=      5-min Rain = 0
KQU1 161143Z 27018KT 06/M03 A3002 RMK A01 T00551030  RH  054%=      5-min Rain = 0
KQU1 161144Z 27017KT 06/M03 A3002 RMK A01 T00561030  RH  054%=      5-min Rain = 0
KQU1 161145Z 27016KT 06/M03 A3002 RMK A01 T00571030  RH  054%=      5-min Rain = 0
KQU1 161146Z 27017KT 06/M03 A3002 RMK A01 T00571030  RH  054%=      5-min Rain = 0
KQU1 161147Z 27017G22KT 06/M03 A3002 RMK A01 T00561030  RH  054%=      5-min Rain = 0
KQU1 161148Z 27017KT 06/M03 A3002 RMK A01 T00571030  RH  054%=      5-min Rain = 0
KQU1 161149Z 27018KT 06/M03 A3002 RMK A01 T00571030  RH  053%=      5-min Rain = 0
KQU1 161150Z 27017KT 06/M03 A3002 RMK A01 T00571030  RH  053%=      5-min Rain = 0
KQU1 161151Z 27017KT 06/M03 A3002 RMK A01 T00571030  RH  054%=      5-min Rain = 0
KQU1 161152Z 27018KT 06/M03 A3002 RMK A01 T00571030  RH  053%=      5-min Rain = 0
KQU1 161153Z 27018KT 06/M03 A3002 RMK A01 T00571030  RH  053%=      5-min Rain = 0
KQU1 161154Z 26018KT 06/M03 A3002 RMK A01 T00581031  RH  053%=      5-min Rain = 0
KQU1 161155Z 27019KT 06/M03 A3002 RMK A01 T00581031  RH  053%=      5-min Rain = 0
KQU1 161156Z 27017G22KT 06/M03 A3002 RMK A01 T00581031  RH  053%=      5-min Rain = 0
KQU1 161157Z 26016KT 06/M03 A3002 RMK A01 T00571030  RH  053%=      5-min Rain = 0
KQU1 161158Z 27017KT 06/M03 A3002 RMK A01 T00571030  RH  054%=      5-min Rain = 0
KQU1 161159Z 26016KT 06/M03 A3002 RMK A01 T00561030  RH  054%=      5-min Rain = 0
KQU1 161200Z 27015KT 06/M03 A3002 RMK A01 T00561030  RH  054%=      5-min Rain = 0
KQU1 161201Z 26015KT 06/M03 A3002 RMK A01 T00561030  RH  054%=      5-min Rain = 0
KQU1 161202Z 26015KT 06/M03 A3002 RMK A01 T00551030  RH  054%=      5-min Rain = 0
KQU1 161203Z 26014KT 06/M03 A3002 RMK A01 T00551030  RH  054%=      5-min Rain = 0
KQU1 161204Z 26014KT 06/M03 A3002 RMK A01 T00561030  RH  054%=      5-min Rain = 0
KQU1 161205Z 26014KT 06/M03 A3002 RMK A01 T00561030  RH  054%=      5-min Rain = 0
KQU1 161206Z 26015KT 06/M03 A3001 RMK A01 T00561030  RH  054%=      5-min Rain = 0
KQU1 161207Z 26015KT 06/M03 A3001 RMK A01 T00561030  RH  054%=      5-min Rain = 0
KQU1 161208Z 27015KT 06/M03 A3001 RMK A01 T00561030  RH  054%=      5-min Rain = 0
KQU1 161209Z 26016KT 06/M03 A3001 RMK A01 T00551030  RH  054%=      5-min Rain = 0
KQU1 161210Z 27015KT 06/M03 A3001 RMK A01 T00551030  RH  054%=      5-min Rain = 0
KQU1 161211Z 26014KT 06/M03 A3001 RMK A01 T00551030  RH  054%=      5-min Rain = 0
KQU1 161212Z 26016KT 06/M03 A3001 RMK A01 T00551031  RH  054%=      5-min Rain = 0
KQU1 161213Z 27015KT 06/M03 A3001 RMK A01 T00551030  RH  054%=      5-min Rain = 0
KQU1 161214Z 26014KT 06/M03 A3001 RMK A01 T00551030  RH  054%=      5-min Rain = 0
KQU1 161215Z 27015KT 06/M03 A3001 RMK A01 T00551030  RH  054%=      5-min Rain = 0
KQU1 161216Z 27015KT 05/M03 A3001 RMK A01 T00541030  RH  055%=      5-min Rain = 0
KQU1 161217Z 27018KT 05/M03 A3001 RMK A01 T00541031  RH  054%=      5-min Rain = 0
KQU1 161218Z 27017KT 06/M03 A3001 RMK A01 T00551031  RH  054%=      5-min Rain = 0
KQU1 161219Z 27018KT 06/M03 A3001 RMK A01 T00551031  RH  054%=      5-min Rain = 0
KQU1 161220Z 26017KT 06/M03 A3001 RMK A01 T00551031  RH  054%=      5-min Rain = 0
KQU1 161221Z 27017KT 06/M03 A3001 RMK A01 T00551032  RH  054%=      5-min Rain = 0
KQU1 161222Z 27018KT 06/M03 A3001 RMK A01 T00551032  RH  053%=      5-min Rain = 0
KQU1 161223Z 26016KT 06/M03 A3001 RMK A01 T00551032  RH  053%=      5-min Rain = 0
KQU1 161224Z 27017KT 06/M03 A3001 RMK A01 T00551032  RH  054%=      5-min Rain = 0
KQU1 161225Z 27018KT 06/M03 A3001 RMK A01 T00551032  RH  054%=      5-min Rain = 0
KQU1 161226Z 26017KT 06/M03 A3001 RMK A01 T00551032  RH  054%=      5-min Rain = 0
KQU1 161227Z 27018KT 06/M03 A3001 RMK A01 T00551032  RH  053%=      5-min Rain = 0
KQU1 161228Z 26016KT 06/M03 A3001 RMK A01 T00551032  RH  054%=      5-min Rain = 0
KQU1 161229Z 26015KT 06/M03 A3001 RMK A01 T00551032  RH  053%=      5-min Rain = 0
KQU1 161230Z 26013KT 06/M03 A3001 RMK A01 T00551031  RH  054%=      5-min Rain = 0
KQU1 161231Z 26014KT 05/M03 A3001 RMK A01 T00541032  RH  054%=      5-min Rain = 0
KQU1 161232Z 26015KT 06/M03 A3001 RMK A01 T00551032  RH  053%=      5-min Rain = 0
KQU1 161233Z 26015KT 06/M03 A3001 RMK A01 T00561032  RH  053%=      5-min Rain = 0
KQU1 161234Z 27015KT 06/M03 A3001 RMK A01 T00571032  RH  053%=      5-min Rain = 0
KQU1 161235Z 26014KT 06/M03 A3001 RMK A01 T00571032  RH  053%=      5-min Rain = 0
KQU1 161236Z 27014KT 06/M03 A3001 RMK A01 T00581032  RH  053%=      5-min Rain = 0
KQU1 161237Z 26014KT 06/M03 A3001 RMK A01 T00581032  RH  052%=      5-min Rain = 0
KQU1 161238Z 26013KT 06/M03 A3001 RMK A01 T00581032  RH  053%=      5-min Rain = 0
KQU1 161239Z 26015KT 06/M03 A3001 RMK A01 T00581032  RH  052%=      5-min Rain = 0
KQU1 161240Z 26014KT 06/M03 A3001 RMK A01 T00601032  RH  052%=      5-min Rain = 0
KQU1 161241Z 26016KT 06/M03 A3001 RMK A01 T00601032  RH  052%=      5-min Rain = 0
KQU1 161242Z 26014KT 06/M03 A3001 RMK A01 T00611032  RH  051%=      5-min Rain = 0
KQU1 161243Z 26016KT 06/M03 A3001 RMK A01 T00611033  RH  051%=      5-min Rain = 0
KQU1 161244Z 26015KT 06/M03 A3001 RMK A01 T00621033  RH  051%=      5-min Rain = 0
KQU1 161245Z 26014KT 06/M03 A3001 RMK A01 T00631032  RH  051%=      5-min Rain = 0
KQU1 161246Z 26016KT 06/M03 A3001 RMK A01 T00621033  RH  050%=      5-min Rain = 0
KQU1 161247Z 26014KT 06/M03 A3001 RMK A01 T00621033  RH  051%=      5-min Rain = 0
KQU1 161248Z 26014G20KT 06/M03 A3001 RMK A01 T00621032  RH  051%=      5-min Rain = 0
KQU1 161249Z 26015G20KT 06/M03 A3001 RMK A01 T00621033  RH  050%=      5-min Rain = 0
KQU1 161250Z 26016KT 06/M03 A3001 RMK A01 T00641034  RH  050%=      5-min Rain = 0
KQU1 161251Z 26016KT 06/M03 A3001 RMK A01 T00641034  RH  050%=      5-min Rain = 0
KQU1 161252Z 26015KT 06/M03 A3001 RMK A01 T00641033  RH  050%=      5-min Rain = 0
KQU1 161253Z 26015KT 06/M03 A3001 RMK A01 T00631033  RH  050%=      5-min Rain = 0
KQU1 161254Z 26016KT 06/M03 A3001 RMK A01 T00631034  RH  050%=      5-min Rain = 0
KQU1 161255Z 26015G20KT 06/M03 A3001 RMK A01 T00641034  RH  050%=      5-min Rain = 0
KQU1 161256Z 26014KT 07/M03 A3001 RMK A01 T00651034  RH  049%=      5-min Rain = 0
KQU1 161257Z 26017KT 07/M04 A3001 RMK A01 T00661035  RH  048%=      5-min Rain = 0
KQU1 161258Z 26016KT 07/M04 A3001 RMK A01 T00681036  RH  048%=      5-min Rain = 0
KQU1 161259Z 26015KT 07/M04 A3001 RMK A01 T00691036  RH  047%=      5-min Rain = 0
KQU1 161300Z 26014KT 07/M04 A3001 RMK A01 T00701036  RH  047%=      5-min Rain = 0
KQU1 161301Z 26016KT 07/M04 A3001 RMK A01 T00701037  RH  047%=      5-min Rain = 0
KQU1 161302Z 26017KT 07/M04 A3001 RMK A01 T00711037  RH  046%=      5-min Rain = 0
KQU1 161303Z 26015KT 07/M04 A3001 RMK A01 T00711037  RH  046%=      5-min Rain = 0
KQU1 161304Z 26015KT 07/M04 A3001 RMK A01 T00711037  RH  046%=      5-min Rain = 0
KQU1 161305Z 26016KT 07/M04 A3001 RMK A01 T00721037  RH  046%=      5-min Rain = 0
KQU1 161306Z 26016KT 07/M04 A3001 RMK A01 T00721037  RH  046%=      5-min Rain = 0
KQU1 161307Z 26013G18KT 07/M04 A3001 RMK A01 T00721037  RH  046%=      5-min Rain = 0
KQU1 161308Z 26015KT 07/M04 A3001 RMK A01 T00711037  RH  046%=      5-min Rain = 0
KQU1 161309Z 26016KT 07/M04 A3001 RMK A01 T00721038  RH  046%=      5-min Rain = 0
KQU1 161310Z 26014KT 07/M04 A3001 RMK A01 T00721038  RH  045%=      5-min Rain = 0
KQU1 161311Z 26017KT 07/M04 A3001 RMK A01 T00721038  RH  045%=      5-min Rain = 0
KQU1 161312Z 26016KT 07/M04 A3001 RMK A01 T00721038  RH  045%=      5-min Rain = 0
KQU1 161313Z 26015KT 07/M04 A3001 RMK A01 T00721038  RH  046%=      5-min Rain = 0
KQU1 161314Z 26016KT 07/M04 A3001 RMK A01 T00711038  RH  046%=      5-min Rain = 0
KQU1 161315Z 26015KT 07/M04 A3001 RMK A01 T00711038  RH  046%=      5-min Rain = 0
KQU1 161316Z 26015KT 07/M04 A3001 RMK A01 T00711038  RH  046%=      5-min Rain = 0
KQU1 161317Z 26016KT 07/M04 A3001 RMK A01 T00701038  RH  046%=      5-min Rain = 0
KQU1 161318Z 26016G21KT 07/M04 A3001 RMK A01 T00691038  RH  046%=      5-min Rain = 0
KQU1 161319Z 26015KT 07/M04 A3001 RMK A01 T00691037  RH  047%=      5-min Rain = 0
KQU1 161320Z 26016KT 07/M04 A3001 RMK A01 T00681037  RH  047%=      5-min Rain = 0
KQU1 161321Z 26015KT 07/M04 A3001 RMK A01 T00671037  RH  048%=      5-min Rain = 0
KQU1 161322Z 26016KT 07/M04 A3001 RMK A01 T00661038  RH  047%=      5-min Rain = 0
KQU1 161323Z 26015KT 07/M04 A3001 RMK A01 T00661037  RH  048%=      5-min Rain = 0
KQU1 161324Z 26015KT 07/M04 A3001 RMK A01 T00651037  RH  048%=      5-min Rain = 0
KQU1 161325Z 26015KT 06/M04 A3001 RMK A01 T00641037  RH  049%=      5-min Rain = 0
KQU1 161326Z 26016KT 06/M04 A3001 RMK A01 T00631037  RH  049%=      5-min Rain = 0
KQU1 161327Z 26013G18KT 06/M04 A3001 RMK A01 T00621036  RH  049%=      5-min Rain = 0
KQU1 161328Z 26014KT 06/M04 A3001 RMK A01 T00611036  RH  050%=      5-min Rain = 0
KQU1 161329Z 27014G19KT 06/M04 A3001 RMK A01 T00601035  RH  050%=      5-min Rain = 0
KQU1 161330Z 27015KT 06/M04 A3001 RMK A01 T00591036  RH  050%=      5-min Rain = 0
KQU1 161331Z 27017KT 06/M04 A3001 RMK A01 T00601037  RH  050%=      5-min Rain = 0
KQU1 161332Z 27016KT 06/M04 A3001 RMK A01 T00601036  RH  050%=      5-min Rain = 0
KQU1 161333Z 26014KT 06/M04 A3001 RMK A01 T00591035  RH  051%=      5-min Rain = 0
KQU1 161334Z 27014KT 06/M04 A3001 RMK A01 T00591036  RH  051%=      5-min Rain = 0
KQU1 161335Z 27016KT 06/M04 A3001 RMK A01 T00591035  RH  051%=      5-min Rain = 0
KQU1 161336Z 27016KT 06/M04 A3001 RMK A01 T00591036  RH  050%=      5-min Rain = 0
KQU1 161337Z 27016KT 06/M04 A3001 RMK A01 T00601036  RH  050%=      5-min Rain = 0
KQU1 161338Z 27016KT 06/M04 A3001 RMK A01 T00601036  RH  050%=      5-min Rain = 0
KQU1 161339Z 27016KT 06/M04 A3001 RMK A01 T00601036  RH  050%=      5-min Rain = 0
KQU1 161340Z 27016KT 06/M04 A3001 RMK A01 T00611037  RH  050%=      5-min Rain = 0
KQU1 161341Z 27017KT 06/M04 A3001 RMK A01 T00611037  RH  050%=      5-min Rain = 0
KQU1 161342Z 27017KT 06/M04 A3001 RMK A01 T00621037  RH  049%=      5-min Rain = 0
KQU1 161343Z 27016KT 06/M04 A3001 RMK A01 T00611036  RH  050%=      5-min Rain = 0
KQU1 161344Z 27015KT 06/M04 A3001 RMK A01 T00611036  RH  050%=      5-min Rain = 0
KQU1 161345Z 27016KT 06/M04 A3001 RMK A01 T00601036  RH  050%=      5-min Rain = 0
KQU1 161346Z 26014KT 06/M04 A3001 RMK A01 T00601035  RH  051%=      5-min Rain = 0
KQU1 161347Z 27013KT 06/M04 A3001 RMK A01 T00591035  RH  051%=      5-min Rain = 0
KQU1 161348Z 27014KT 06/M03 A3001 RMK A01 T00601034  RH  051%=      5-min Rain = 0
KQU1 161349Z 27014KT 06/M04 A3001 RMK A01 T00601035  RH  051%=      5-min Rain = 0
KQU1 161350Z 27015KT 06/M04 A3001 RMK A01 T00601035  RH  050%=      5-min Rain = 0
KQU1 161351Z 26013G18KT 06/M03 A3001 RMK A01 T00601034  RH  051%=      5-min Rain = 0
KQU1 161352Z 27014KT 06/M03 A3001 RMK A01 T00601034  RH  051%=      5-min Rain = 0
KQU1 161353Z 26013KT 06/M03 A3001 RMK A01 T00601034  RH  051%=      5-min Rain = 0
KQU1 161354Z 26014KT 06/M03 A3001 RMK A01 T00601034  RH  051%=      5-min Rain = 0
KQU1 161355Z 26014KT 06/M04 A3001 RMK A01 T00621035  RH  050%=      5-min Rain = 0
KQU1 161356Z 26015KT 06/M04 A3001 RMK A01 T00631035  RH  049%=      5-min Rain = 0
KQU1 161357Z 26015KT 06/M04 A3001 RMK A01 T00641035  RH  049%=      5-min Rain = 0
KQU1 161358Z 27014KT 07/M04 A3001 RMK A01 T00651035  RH  049%=      5-min Rain = 0
KQU1 161359Z 26015KT 07/M04 A3001 RMK A01 T00651035  RH  049%=      5-min Rain = 0
KQU1 161400Z 26016KT 07/M04 A3001 RMK A01 T00651035  RH  049%=      5-min Rain = 0
KQU1 161401Z 26014KT 07/M04 A3001 RMK A01 T00661035  RH  049%=      5-min Rain = 0
KQU1 161402Z 26015KT 07/M04 A3001 RMK A01 T00671035  RH  048%=      5-min Rain = 0
KQU1 161403Z 27017KT 07/M04 A3001 RMK A01 T00681036  RH  047%=      5-min Rain = 0
KQU1 161404Z 26016KT 07/M04 A3001 RMK A01 T00701036  RH  047%=      5-min Rain = 0
KQU1 161405Z 26016KT 07/M04 A3001 RMK A01 T00711036  RH  046%=      5-min Rain = 0
KQU1 161406Z 26015KT 07/M04 A3001 RMK A01 T00711035  RH  047%=      5-min Rain = 0
KQU1 161407Z 26016KT 07/M04 A3001 RMK A01 T00711036  RH  046%=      5-min Rain = 0
KQU1 161408Z 26015KT 07/M04 A3001 RMK A01 T00711036  RH  047%=      5-min Rain = 0
KQU1 161409Z 26016KT 07/M04 A3001 RMK A01 T00721036  RH  046%=      5-min Rain = 0
KQU1 161410Z 27015KT 07/M04 A3001 RMK A01 T00731036  RH  046%=      5-min Rain = 0
KQU1 161411Z 26015KT 07/M04 A3001 RMK A01 T00731037  RH  046%=      5-min Rain = 0
KQU1 161412Z 26016KT 07/M04 A3001 RMK A01 T00741036  RH  046%=      5-min Rain = 0
KQU1 161413Z 27015KT 08/M04 A3001 RMK A01 T00751037  RH  045%=      5-min Rain = 0
KQU1 161414Z 26017KT 08/M04 A3001 RMK A01 T00761037  RH  045%=      5-min Rain = 0
KQU1 161415Z 27017KT 08/M04 A3001 RMK A01 T00761036  RH  045%=      5-min Rain = 0
KQU1 161416Z 26016KT 08/M04 A30 RMK A01 T00771035  RH  045%=      5-min Rain = 0
KQU1 161417Z 26013KT 08/M04 A30 RMK A01 T00781035  RH  045%=      5-min Rain = 0
KQU1 161418Z 26014KT 08/M04 A30 RMK A01 T00781035  RH  045%=      5-min Rain = 0
KQU1 161419Z 26014KT 08/M04 A30 RMK A01 T00781035  RH  045%=      5-min Rain = 0
KQU1 161420Z 26015KT 08/M03 A30 RMK A01 T00791034  RH  045%=      5-min Rain = 0
KQU1 161421Z 26016KT 08/M04 A30 RMK A01 T00801036  RH  044%=      5-min Rain = 0
KQU1 161422Z 26015KT 08/M04 A30 RMK A01 T00801035  RH  044%=      5-min Rain = 0
KQU1 161423Z 26015KT 08/M04 A30 RMK A01 T00811035  RH  044%=      5-min Rain = 0
KQU1 161424Z 26016KT 08/M04 A30 RMK A01 T00821036  RH  043%=      5-min Rain = 0
KQU1 161425Z 26017KT 08/M04 A30 RMK A01 T00831037  RH  042%=      5-min Rain = 0
KQU1 161426Z 26016KT 08/M04 A30 RMK A01 T00841036  RH  042%=      5-min Rain = 0
KQU1 161427Z 26016KT 09/M04 A30 RMK A01 T00851036  RH  042%=      5-min Rain = 0
KQU1 161428Z 26015KT 09/M04 A30 RMK A01 T00851035  RH  043%=      5-min Rain = 0
KQU1 161429Z 26015G20KT 09/M04 A30 RMK A01 T00861035  RH  043%=      5-min Rain = 0
KQU1 161430Z 26014KT 09/M03 A30 RMK A01 T00861034  RH  043%=      5-min Rain = 0
KQU1 161431Z 26014KT 09/M03 A30 RMK A01 T00861034  RH  043%=      5-min Rain = 0
KQU1 161432Z 26017KT 09/M04 A30 RMK A01 T00861036  RH  042%=      5-min Rain = 0
KQU1 161433Z 26015KT 09/M04 A30 RMK A01 T00871035  RH  042%=      5-min Rain = 0
KQU1 161434Z 26018KT 09/M04 A30 RMK A01 T00871036  RH  042%=      5-min Rain = 0
KQU1 161435Z 26016KT 09/M04 A30 RMK A01 T00881036  RH  042%=      5-min Rain = 0
KQU1 161436Z 26015KT 09/M04 A30 RMK A01 T00881035  RH  042%=      5-min Rain = 0
KQU1 161437Z 26015KT 09/M04 A30 RMK A01 T00881035  RH  042%=      5-min Rain = 0
KQU1 161438Z 26014KT 09/M03 A30 RMK A01 T00881033  RH  042%=      5-min Rain = 0
KQU1 161439Z 26014G19KT 09/M03 A30 RMK A01 T00871034  RH  042%=      5-min Rain = 0
KQU1 161440Z 26014KT 09/M03 A30 RMK A01 T00871033  RH  043%=      5-min Rain = 0
KQU1 161441Z 26015KT 09/M03 A30 RMK A01 T00871033  RH  042%=      5-min Rain = 0
KQU1 161442Z 26016KT 09/M03 A30 RMK A01 T00881034  RH  042%=      5-min Rain = 0
KQU1 161443Z 26016KT 09/M03 A30 RMK A01 T00881034  RH  042%=      5-min Rain = 0
KQU1 161444Z 26014KT 09/M03 A30 RMK A01 T00881033  RH  042%=      5-min Rain = 0
KQU1 161445Z 26016KT 09/M03 A30 RMK A01 T00881032  RH  042%=      5-min Rain = 0
KQU1 161446Z 26015G20KT 09/M03 A30 RMK A01 T00891031  RH  043%=      5-min Rain = 0
KQU1 161447Z 26015KT 09/M03 A30 RMK A01 T00901032  RH  042%=      5-min Rain = 0
KQU1 161448Z 26016KT 09/M03 A30 RMK A01 T00901033  RH  042%=      5-min Rain = 0
KQU1 161449Z 26016KT 09/M03 A30 RMK A01 T00901033  RH  042%=      5-min Rain = 0
KQU1 161450Z 26016KT 09/M03 A30 RMK A01 T00901031  RH  042%=      5-min Rain = 0
KQU1 161451Z 26015KT 09/M03 A30 RMK A01 T00911030  RH  042%=      5-min Rain = 0
KQU1 161452Z 26014KT 09/M03 A30 RMK A01 T00901030  RH  043%=      5-min Rain = 0
KQU1 161453Z 26016KT 09/M03 A30 RMK A01 T00911031  RH  042%=      5-min Rain = 0
KQU1 161454Z 26015KT 09/M03 A30 RMK A01 T00911031  RH  042%=      5-min Rain = 0
KQU1 161455Z 26015KT 09/M03 A30 RMK A01 T00921031  RH  042%=      5-min Rain = 0
KQU1 161456Z 26014KT 09/M03 A30 RMK A01 T00931030  RH  042%=      5-min Rain = 0
KQU1 161457Z 26013KT 09/M03 A30 RMK A01 T00931029  RH  042%=      5-min Rain = 0
KQU1 161458Z 26014KT 09/M03 A30 RMK A01 T00931027  RH  043%=      5-min Rain = 0
KQU1 161459Z 26015KT 09/M03 A30 RMK A01 T00931029  RH  042%=      5-min Rain = 0
KQU1 161500Z 26016KT 09/M03 A30 RMK A01 T00931029  RH  042%=      5-min Rain = 0
KQU1 161501Z 26015G20KT 09/M03 A30 RMK A01 T00921028  RH  043%=      5-min Rain = 0
KQU1 161502Z 26015KT 09/M03 A30 RMK A01 T00931028  RH  043%=      5-min Rain = 0
KQU1 161503Z 26015KT 09/M03 A30 RMK A01 T00931028  RH  043%=      5-min Rain = 0
KQU1 161504Z 26017KT 09/M03 A30 RMK A01 T00931029  RH  042%=      5-min Rain = 0
KQU1 161505Z 26015KT 09/M03 A30 RMK A01 T00941027  RH  043%=      5-min Rain = 0
KQU1 161506Z 26015KT 09/M03 A30 RMK A01 T00941026  RH  043%=      5-min Rain = 0
KQU1 161507Z 26013G18KT 10/M03 A30 RMK A01 T00951025  RH  043%=      5-min Rain = 0
KQU1 161508Z 26015KT 10/M03 A30 RMK A01 T00951026  RH  042%=      5-min Rain = 0
KQU1 161509Z 26016KT 10/M03 A30 RMK A01 T00961027  RH  042%=      5-min Rain = 0
KQU1 161510Z 26014KT 10/M02 A30 RMK A01 T00961024  RH  043%=      5-min Rain = 0
KQU1 161511Z 26014KT 10/M02 A30 RMK A01 T00961024  RH  043%=      5-min Rain = 0
KQU1 161512Z 26015KT 10/M02 A30 RMK A01 T00971024  RH  043%=      5-min Rain = 0
KQU1 161513Z 26014KT 10/M02 A30 RMK A01 T00981022  RH  043%=      5-min Rain = 0
KQU1 161514Z 26017KT 10/M02 A30 RMK A01 T00991024  RH  042%=      5-min Rain = 0
KQU1 161515Z 26016KT 10/M02 A30 RMK A01 T00991024  RH  042%=      5-min Rain = 0
KQU1 161516Z 26014KT 10/M02 A30 RMK A01 T00991022  RH  043%=      5-min Rain = 0
KQU1 161517Z 26014KT 10/M02 A30 RMK A01 T01001022  RH  042%=      5-min Rain = 0
KQU1 161518Z 26015G21KT 10/M02 A30 RMK A01 T01011023  RH  042%=      5-min Rain = 0
KQU1 161519Z 26013G18KT 10/M02 A30 RMK A01 T01011021  RH  042%=      5-min Rain = 0
KQU1 161520Z 26013G19KT 10/M02 A30 RMK A01 T01021024  RH  041%=      5-min Rain = 0
KQU1 161521Z 26013KT 10/M02 A3001 RMK A01 T01021021  RH  042%=      5-min Rain = 0
KQU1 161522Z 26013KT 10/M02 A3001 RMK A01 T01031021  RH  042%=      5-min Rain = 0
KQU1 161523Z 26014KT 10/M02 A3001 RMK A01 T01041021  RH  042%=      5-min Rain = 0
KQU1 161524Z 26016KT 10/M02 A3001 RMK A01 T01041022  RH  041%=      5-min Rain = 0
KQU1 161525Z 26014KT 11/M02 A30 RMK A01 T01051022  RH  041%=      5-min Rain = 0
KQU1 161526Z 26014KT 11/M02 A3001 RMK A01 T01051020  RH  041%=      5-min Rain = 0
KQU1 161527Z 25013KT 11/M02 A3001 RMK A01 T01051019  RH  042%=      5-min Rain = 0
KQU1 161528Z 26015KT 11/M02 A3001 RMK A01 T01061020  RH  041%=      5-min Rain = 0
KQU1 161529Z 26016KT 11/M02 A30 RMK A01 T01051021  RH  041%=      5-min Rain = 0
KQU1 161530Z 26014KT 11/M02 A30 RMK A01 T01051019  RH  042%=      5-min Rain = 0
KQU1 161531Z 26014KT 11/M02 A30 RMK A01 T01061020  RH  041%=      5-min Rain = 0
KQU1 161532Z 26013G18KT 11/M02 A30 RMK A01 T01071017  RH  042%=      5-min Rain = 0
KQU1 161533Z 26012KT 11/M02 A30 RMK A01 T01071016  RH  042%=      5-min Rain = 0
KQU1 161534Z 26013KT 11/M02 A30 RMK A01 T01081017  RH  042%=      5-min Rain = 0
KQU1 161535Z 25014KT 11/M02 A30 RMK A01 T01081018  RH  041%=      5-min Rain = 0
KQU1 161536Z 26015KT 11/M02 A30 RMK A01 T01081020  RH  041%=      5-min Rain = 0
KQU1 161537Z 25015KT 11/M02 A30 RMK A01 T01081019  RH  041%=      5-min Rain = 0
KQU1 161538Z 26014KT 11/M02 A30 RMK A01 T01091017  RH  041%=      5-min Rain = 0
KQU1 161539Z 25015KT 11/M02 A30 RMK A01 T01091019  RH  041%=      5-min Rain = 0
KQU1 161540Z 25013KT 11/M02 A30 RMK A01 T01101015  RH  042%=      5-min Rain = 0
KQU1 161541Z 25014KT 11/M02 A30 RMK A01 T01101015  RH  041%=      5-min Rain = 0
KQU1 161542Z 25012KT 11/M02 A30 RMK A01 T01111015  RH  042%=      5-min Rain = 0
KQU1 161543Z 25015KT 11/M02 A30 RMK A01 T01111018  RH  041%=      5-min Rain = 0
KQU1 161544Z 25014KT 11/M02 A30 RMK A01 T01111017  RH  041%=      5-min Rain = 0
KQU1 161545Z 26012KT 11/M01 A3001 RMK A01 T01111014  RH  042%=      5-min Rain = 0
KQU1 161546Z 26013KT 11/M01 A3001 RMK A01 T01131014  RH  041%=      5-min Rain = 0
KQU1 161547Z 26014KT 11/M02 A3001 RMK A01 T01141015  RH  041%=      5-min Rain = 0
KQU1 161548Z 25012KT 11/M02 A3001 RMK A01 T01141016  RH  040%=      5-min Rain = 0
KQU1 161549Z 25011G16KT 12/M01 A3001 RMK A01 T01151012  RH  041%=      5-min Rain = 0
KQU1 161550Z 25014KT 12/M02 A3001 RMK A01 T01151016  RH  040%=      5-min Rain = 0
KQU1 161551Z 25011KT 12/M01 A3001 RMK A01 T01171012  RH  041%=      5-min Rain = 0
KQU1 161552Z 25011G16KT 12/M01 A3001 RMK A01 T01181012  RH  040%=      5-min Rain = 0
KQU1 161553Z 25012KT 12/M01 A3001 RMK A01 T01181013  RH  040%=      5-min Rain = 0
KQU1 161554Z 26012KT 12/M01 A3001 RMK A01 T01181013  RH  040%=      5-min Rain = 0
KQU1 161555Z 25014KT 12/M01 A3001 RMK A01 T01181013  RH  040%=      5-min Rain = 0
KQU1 161556Z 25013KT 12/M01 A3001 RMK A01 T01181012  RH  040%=      5-min Rain = 0
KQU1 161557Z 26012KT 12/M01 A3001 RMK A01 T01191011  RH  041%=      5-min Rain = 0
KQU1 161558Z 25012KT 12/M01 A3001 RMK A01 T01191012  RH  040%=      5-min Rain = 0
KQU1 161559Z 26014KT 12/M01 A3001 RMK A01 T01191014  RH  040%=      5-min Rain = 0
KQU1 161600Z 25013KT 12/M01 A3001 RMK A01 T01191011  RH  040%=      5-min Rain = 0
KQU1 161601Z 26014KT 12/M01 A3001 RMK A01 T01201012  RH  040%=      5-min Rain = 0
KQU1 161602Z 25014KT 12/M01 A30 RMK A01 T01201012  RH  040%=      5-min Rain = 0
KQU1 161603Z 25014KT 12/M01 A30 RMK A01 T01211013  RH  039%=      5-min Rain = 0
KQU1 161604Z 25014KT 12/M01 A30 RMK A01 T01211014  RH  039%=      5-min Rain = 0
KQU1 161605Z 25011KT 12/M01 A30 RMK A01 T01231010  RH  040%=      5-min Rain = 0
KQU1 161606Z 25013KT 13/M01 A30 RMK A01 T01251012  RH  039%=      5-min Rain = 0
KQU1 161607Z 25015KT 13/M01 A30 RMK A01 T01261014  RH  038%=      5-min Rain = 0
KQU1 161608Z 25013KT 13/M01 A30 RMK A01 T01271012  RH  038%=      5-min Rain = 0
KQU1 161609Z 24012KT 13/M01 A30 RMK A01 T01291012  RH  038%=      5-min Rain = 0
KQU1 161610Z 24014KT 13/M02 A30 RMK A01 T01301015  RH  036%=      5-min Rain = 0
KQU1 161611Z 24012KT 13/M01 A30 RMK A01 T01301013  RH  037%=      5-min Rain = 0
KQU1 161612Z 24013G18KT 13/M01 A30 RMK A01 T01321010  RH  037%=      5-min Rain = 0
KQU1 161613Z 24017KT 13/M02 A30 RMK A01 T01311017  RH  036%=      5-min Rain = 0
KQU1 161614Z 24015KT 13/M02 A30 RMK A01 T01301015  RH  036%=      5-min Rain = 0
KQU1 161615Z 24014G20KT 13/M01 A30 RMK A01 T01301014  RH  037%=      5-min Rain = 0
KQU1 161616Z 25015KT 13/M02 A30 RMK A01 T01301015  RH  037%=      5-min Rain = 0
KQU1 161617Z 24013KT 13/M02 A30 RMK A01 T01301015  RH  037%=      5-min Rain = 0
KQU1 161618Z 24013KT 13/M01 A30 RMK A01 T01301012  RH  037%=      5-min Rain = 0
KQU1 161619Z 24010KT 13/M01 A30 RMK A01 T01321008  RH  038%=      5-min Rain = 0
KQU1 161620Z 23014KT 13/M01 A30 RMK A01 T01321009  RH  038%=      5-min Rain = 0
KQU1 161621Z 23014KT 13/M01 A30 RMK A01 T01321011  RH  037%=      5-min Rain = 0
KQU1 161622Z 23015KT 13/M01 A30 RMK A01 T01311008  RH  038%=      5-min Rain = 0
KQU1 161623Z 23015KT 13/M01 A30 RMK A01 T01311009  RH  038%=      5-min Rain = 0
KQU1 161624Z 23017KT 13/M01 A30 RMK A01 T01301010  RH  038%=      5-min Rain = 0
KQU1 161625Z 24016KT 13/M01 A30 RMK A01 T01281011  RH  038%=      5-min Rain = 0
KQU1 161626Z 23016KT 13/M01 A30 RMK A01 T01281009  RH  039%=      5-min Rain = 0
KQU1 161627Z 23017KT 13/M01 A30 RMK A01 T01281010  RH  039%=      5-min Rain = 0
KQU1 161628Z 24017KT 13/M01 A30 RMK A01 T01271010  RH  039%=      5-min Rain = 0
KQU1 161629Z 24017KT 13/M01 A30 RMK A01 T01271011  RH  038%=      5-min Rain = 0
KQU1 161630Z 24015KT 13/M01 A30 RMK A01 T01271008  RH  039%=      5-min Rain = 0
KQU1 161631Z 24015KT 13/M01 A30 RMK A01 T01281007  RH  039%=      5-min Rain = 0
KQU1 161632Z 24015KT 13/M01 A30 RMK A01 T01291009  RH  038%=      5-min Rain = 0
KQU1 161633Z 23016KT 13/M01 A30 RMK A01 T01301007  RH  039%=      5-min Rain = 0
KQU1 161634Z 24015KT 13/M01 A30 RMK A01 T01311008  RH  038%=      5-min Rain = 0
KQU1 161635Z 24013KT 13/M01 A30 RMK A01 T01311007  RH  039%=      5-min Rain = 0
KQU1 161636Z 25012KT 13/M01 A30 RMK A01 T01321005  RH  039%=      5-min Rain = 0
KQU1 161637Z 25012KT 13/M01 A30 RMK A01 T01341006  RH  038%=      5-min Rain = 0
KQU1 161638Z 24011KT 13/M00 A30 RMK A01 T01341003  RH  039%=      5-min Rain = 0
KQU1 161639Z 25012KT 14/M00 A2999 RMK A01 T01361004  RH  038%=      5-min Rain = 0
KQU1 161640Z 25014KT 14/M00 A2999 RMK A01 T01371003  RH  038%=      5-min Rain = 0
KQU1 161641Z 25015KT 14/M01 A2999 RMK A01 T01371008  RH  037%=      5-min Rain = 0
KQU1 161642Z 25016KT 14/M01 A2999 RMK A01 T01361009  RH  037%=      5-min Rain = 0
KQU1 161643Z 25015G20KT 14/M01 A2999 RMK A01 T01361008  RH  037%=      5-min Rain = 0
KQU1 161644Z 25011KT 14/M00 A2999 RMK A01 T01371003  RH  038%=      5-min Rain = 0
KQU1 161645Z 24014KT 14/M01 A2999 RMK A01 T01381008  RH  037%=      5-min Rain = 0
KQU1 161646Z 24017KT 14/M01 A2999 RMK A01 T01381008  RH  037%=      5-min Rain = 0
KQU1 161647Z 24016KT 14/M01 A2999 RMK A01 T01371010  RH  036%=      5-min Rain = 0
KQU1 161648Z 24014KT 14/M01 A2999 RMK A01 T01371006  RH  037%=      5-min Rain = 0
KQU1 161649Z 24014KT 14/M01 A2999 RMK A01 T01381009  RH  036%=      5-min Rain = 0
KQU1 161650Z 24016KT 14/M01 A2999 RMK A01 T01381009  RH  036%=      5-min Rain = 0
KQU1 161651Z 24015KT 14/M01 A2999 RMK A01 T01391010  RH  036%=      5-min Rain = 0
KQU1 161652Z 24014KT 14/M01 A2999 RMK A01 T01401005  RH  037%=      5-min Rain = 0
KQU1 161653Z 24013KT 14/M01 A2999 RMK A01 T01411008  RH  036%=      5-min Rain = 0
KQU1 161654Z 24014KT 14/M01 A2999 RMK A01 T01421007  RH  036%=      5-min Rain = 0
KQU1 161655Z 23013G18KT 14/M00 A2999 RMK A01 T01421004  RH  036%=      5-min Rain = 0
KQU1 161656Z 24018KT 14/M01 A2999 RMK A01 T01431008  RH  035%=      5-min Rain = 0
KQU1 161657Z 24018KT 14/M01 A2999 RMK A01 T01421010  RH  035%=      5-min Rain = 0
KQU1 161658Z 24017KT 14/M01 A2999 RMK A01 T01421007  RH  036%=      5-min Rain = 0
KQU1 161659Z 24016KT 14/M01 A2999 RMK A01 T01421006  RH  036%=      5-min Rain = 0
KQU1 161700Z 24016KT 14/M01 A2999 RMK A01 T01421005  RH  037%=      5-min Rain = 0
KQU1 161701Z 24014KT 14/M00 A2999 RMK A01 T01421004  RH  037%=      5-min Rain = 0
KQU1 161702Z 23013KT 14/00 A2999 RMK A01 T01430000  RH  038%=      5-min Rain = 0
KQU1 161703Z 24014KT 14/M00 A2999 RMK A01 T01441004  RH  036%=      5-min Rain = 0
KQU1 161704Z 25014KT 14/M00 A2999 RMK A01 T01441001  RH  037%=      5-min Rain = 0
KQU1 161705Z 24013G18KT 15/M00 A2999 RMK A01 T01451004  RH  036%=      5-min Rain = 0
KQU1 161706Z 24013KT 15/00 A2999 RMK A01 T014600-0  RH  037%=      5-min Rain = 0
KQU1 161707Z 25013G18KT 15/M00 A2999 RMK A01 T01471001  RH  036%=      5-min Rain = 0
KQU1 161708Z 25013KT 15/M00 A2999 RMK A01 T01471001  RH  036%=      5-min Rain = 0
KQU1 161709Z 24012KT 15/M01 A2999 RMK A01 T01471005  RH  035%=      5-min Rain = 0
KQU1 161710Z 24013KT 15/M01 A2999 RMK A01 T01481006  RH  035%=      5-min Rain = 0
KQU1 161711Z 24012KT 15/00 A2999 RMK A01 T014900-0  RH  036%=      5-min Rain = 0
KQU1 161712Z 25012KT 15/M00 A2999 RMK A01 T01481001  RH  036%=      5-min Rain = 0
KQU1 161713Z 24014G19KT 15/M01 A2999 RMK A01 T01481006  RH  035%=      5-min Rain = 0
KQU1 161714Z 26015G21KT 15/M00 A2999 RMK A01 T01481003  RH  035%=      5-min Rain = 0
KQU1 161715Z 25015KT 15/M00 A2999 RMK A01 T01481003  RH  035%=      5-min Rain = 0
KQU1 161716Z 25014KT 15/M00 A2999 RMK A01 T01481004  RH  035%=      5-min Rain = 0
KQU1 161717Z 26017KT 15/M00 A2998 RMK A01 T01471004  RH  035%=      5-min Rain = 0
KQU1 161718Z 26016KT 15/M00 A2999 RMK A01 T01461003  RH  036%=      5-min Rain = 0
KQU1 161719Z 26015KT 15/M00 A2999 RMK A01 T01461002  RH  036%=      5-min Rain = 0
KQU1 161720Z 26015KT 15/M00 A2998 RMK A01 T01461002  RH  036%=      5-min Rain = 0
KQU1 161721Z 26015KT 15/M00 A2998 RMK A01 T01461001  RH  037%=      5-min Rain = 0
KQU1 161722Z 26014KT 15/00 A2998 RMK A01 T014600-0  RH  037%=      5-min Rain = 0
KQU1 161723Z 25015KT 15/00 A2998 RMK A01 T01470000  RH  037%=      5-min Rain = 0
KQU1 161724Z 25012KT 15/00 A2998 RMK A01 T01470000  RH  037%=      5-min Rain = 0
KQU1 161725Z 24011KT 15/00 A2998 RMK A01 T01490004  RH  037%=      5-min Rain = 0
KQU1 161726Z 24011KT 15/00 A2998 RMK A01 T01510000  RH  036%=      5-min Rain = 0
KQU1 161727Z 23012KT 15/00 A2998 RMK A01 T01520000  RH  036%=      5-min Rain = 0
KQU1 161728Z 23010KT 15/01 A2998 RMK A01 T01530005  RH  036%=      5-min Rain = 0
KQU1 161729Z 24013G19KT 16/00 A2998 RMK A01 T01550003  RH  036%=      5-min Rain = 0
KQU1 161730Z 24015KT 15/M00 A2998 RMK A01 T01541003  RH  034%=      5-min Rain = 0
KQU1 161731Z 24016KT 15/M00 A2998 RMK A01 T01531004  RH  034%=      5-min Rain = 0
KQU1 161732Z 23015KT 15/M00 A2998 RMK A01 T01531003  RH  034%=      5-min Rain = 0
KQU1 161733Z 23017KT 15/M01 A2998 RMK A01 T01521006  RH  034%=      5-min Rain = 0
KQU1 161734Z 24015KT 15/M00 A2998 RMK A01 T01521002  RH  035%=      5-min Rain = 0
KQU1 161735Z 23014KT 15/00 A2998 RMK A01 T015300-0  RH  035%=      5-min Rain = 0
KQU1 161736Z 24015KT 15/M01 A2998 RMK A01 T01521006  RH  034%=      5-min Rain = 0
KQU1 161737Z 24016KT 15/M01 A2998 RMK A01 T01521005  RH  034%=      5-min Rain = 0
KQU1 161738Z 25016G21KT 15/M01 A2998 RMK A01 T01521006  RH  034%=      5-min Rain = 0
KQU1 161739Z 24016KT 15/M00 A2998 RMK A01 T01521004  RH  034%=      5-min Rain = 0
KQU1 161740Z 23013KT 15/00 A2998 RMK A01 T01530000  RH  035%=      5-min Rain = 0
KQU1 161741Z 23016KT 16/M00 A2998 RMK A01 T01551002  RH  034%=      5-min Rain = 0
KQU1 161742Z 24016KT 15/M01 A2998 RMK A01 T01541005  RH  034%=      5-min Rain = 0
KQU1 161743Z 23016KT 15/M00 A2998 RMK A01 T01541003  RH  034%=      5-min Rain = 0
KQU1 161744Z 23014KT 15/M00 A2998 RMK A01 T01541002  RH  034%=      5-min Rain = 0
KQU1 161745Z 23018KT 16/M00 A2998 RMK A01 T01551004  RH  034%=      5-min Rain = 0
KQU1 161746Z 23014KT 16/00 A2998 RMK A01 T01550002  RH  035%=      5-min Rain = 0
KQU1 161747Z 23015KT 16/00 A2998 RMK A01 T015500-0  RH  035%=      5-min Rain = 0
KQU1 161748Z 23012KT 16/00 A2998 RMK A01 T01550000  RH  035%=      5-min Rain = 0
KQU1 161749Z 25013G18KT 16/00 A2998 RMK A01 T01560001  RH  035%=      5-min Rain = 0
KQU1 161750Z 24013KT 16/00 A2998 RMK A01 T01570001  RH  035%=      5-min Rain = 0
KQU1 161751Z 24012KT 16/00 A2998 RMK A01 T01580001  RH  034%=      5-min Rain = 0
KQU1 161752Z 24012KT 16/00 A2998 RMK A01 T015800-0  RH  034%=      5-min Rain = 0
KQU1 161753Z 22013KT 16/00 A2998 RMK A01 T01590004  RH  035%=      5-min Rain = 0
KQU1 161754Z 23012KT 16/00 A2998 RMK A01 T015900-0  RH  034%=      5-min Rain = 0
KQU1 161755Z 23015KT 16/M00 A2998 RMK A01 T01591001  RH  034%=      5-min Rain = 0
KQU1 161756Z 24016KT 16/M00 A2998 RMK A01 T01601004  RH  033%=      5-min Rain = 0
KQU1 161757Z 23015KT 16/M00 A2997 RMK A01 T01601001  RH  033%=      5-min Rain = 0
KQU1 161758Z 22015KT 16/00 A2997 RMK A01 T01620001  RH  034%=      5-min Rain = 0
KQU1 161759Z 22014KT 16/M01 A2997 RMK A01 T01611005  RH  032%=      5-min Rain = 0
KQU1 161800Z 23014KT 16/M00 A2997 RMK A01 T01611003  RH  033%=      5-min Rain = 0
KQU1 161801Z 23013KT 16/M00 A2997 RMK A01 T01611003  RH  033%=      5-min Rain = 0
KQU1 161802Z 22012KT 16/M00 A2997 RMK A01 T01611003  RH  033%=      5-min Rain = 0
KQU1 161803Z 24012KT 16/M00 A2997 RMK A01 T01621003  RH  033%=      5-min Rain = 0
KQU1 161804Z 24013KT 16/M00 A2997 RMK A01 T01621004  RH  032%=      5-min Rain = 0
KQU1 161805Z 24012KT 16/M00 A2997 RMK A01 T01621003  RH  033%=      5-min Rain = 0
KQU1 161806Z 23011KT 16/00 A2997 RMK A01 T01630001  RH  033%=      5-min Rain = 0
KQU1 161807Z 22013G19KT 17/00 A2997 RMK A01 T01650001  RH  033%=      5-min Rain = 0
KQU1 161808Z 22017KT 17/M01 A2997 RMK A01 T01651006  RH  031%=      5-min Rain = 0
KQU1 161809Z 22015KT 16/M00 A2997 RMK A01 T01641004  RH  032%=      5-min Rain = 0
KQU1 161810Z 22014KT 16/M00 A2997 RMK A01 T01631002  RH  033%=      5-min Rain = 0
KQU1 161811Z 22014KT 16/M00 A2997 RMK A01 T01641004  RH  032%=      5-min Rain = 0
KQU1 161812Z 23015KT 16/M01 A2997 RMK A01 T01641006  RH  031%=      5-min Rain = 0
KQU1 161813Z 23015KT 16/M00 A2997 RMK A01 T01641004  RH  032%=      5-min Rain = 0
KQU1 161814Z 22015KT 16/M00 A2996 RMK A01 T01641003  RH  032%=      5-min Rain = 0
KQU1 161815Z 23015KT 17/M00 A2996 RMK A01 T01651002  RH  032%=      5-min Rain = 0
KQU1 161816Z 23016KT 17/M01 A2996 RMK A01 T01651006  RH  031%=      5-min Rain = 0
KQU1 161817Z 23014KT 17/M00 A2996 RMK A01 T01651002  RH  032%=      5-min Rain = 0
KQU1 161818Z 23013KT 17/M00 A2996 RMK A01 T01651004  RH  031%=      5-min Rain = 0
KQU1 161819Z 23013KT 17/M01 A2996 RMK A01 T01651005  RH  031%=      5-min Rain = 0
KQU1 161820Z 22012KT 17/00 A2996 RMK A01 T01650001  RH  033%=      5-min Rain = 0
KQU1 161821Z 22015KT 17/00 A2996 RMK A01 T01670000  RH  032%=      5-min Rain = 0
KQU1 161822Z 22015KT 17/00 A2996 RMK A01 T01670001  RH  032%=      5-min Rain = 0
KQU1 161823Z 20012KT 17/00 A2996 RMK A01 T01680003  RH  033%=      5-min Rain = 0
KQU1 161824Z 22015KT 17/M00 A2996 RMK A01 T01671004  RH  031%=      5-min Rain = 0
KQU1 161825Z 22016KT 17/M00 A2996 RMK A01 T01671003  RH  032%=      5-min Rain = 0
KQU1 161826Z 23013KT 17/M00 A2996 RMK A01 T01671001  RH  032%=      5-min Rain = 0
KQU1 161827Z 21012KT 17/M00 A2996 RMK A01 T01661002  RH  032%=      5-min Rain = 0
KQU1 161828Z 22015KT 17/M00 A2996 RMK A01 T01671003  RH  031%=      5-min Rain = 0
KQU1 161829Z 22015KT 17/M00 A2996 RMK A01 T01681003  RH  031%=      5-min Rain = 0
KQU1 161830Z 21014KT 17/M00 A2996 RMK A01 T01691004  RH  031%=      5-min Rain = 0
KQU1 161831Z 22016KT 17/M00 A2996 RMK A01 T01691001  RH  031%=      5-min Rain = 0
KQU1 161832Z 22014KT 17/M00 A2996 RMK A01 T01701001  RH  031%=      5-min Rain = 0
KQU1 161833Z 22015KT 17/00 A2996 RMK A01 T017000-0  RH  032%=      5-min Rain = 0
KQU1 161834Z 22016KT 17/00 A2996 RMK A01 T01690001  RH  032%=      5-min Rain = 0
KQU1 161835Z 21016KT 17/00 A2996 RMK A01 T016900-0  RH  032%=      5-min Rain = 0
KQU1 161836Z 21014KT 17/M00 A2996 RMK A01 T01681003  RH  031%=      5-min Rain = 0
KQU1 161837Z 23013KT 17/M00 A2996 RMK A01 T01691002  RH  031%=      5-min Rain = 0
KQU1 161838Z 23014KT 17/M00 A2996 RMK A01 T01701003  RH  031%=      5-min Rain = 0
KQU1 161839Z 23012KT 17/00 A2995 RMK A01 T01710000  RH  031%=      5-min Rain = 0
KQU1 161840Z 24015KT 17/M00 A2995 RMK A01 T01731003  RH  030%=      5-min Rain = 0
KQU1 161841Z 23011KT 17/00 A2995 RMK A01 T01740004  RH  032%=      5-min Rain = 0
KQU1 161842Z 23013KT 18/00 A2995 RMK A01 T01760003  RH  031%=      5-min Rain = 0
KQU1 161843Z 23011KT 17/00 A2995 RMK A01 T01740001  RH  031%=      5-min Rain = 0
KQU1 161844Z 23009KT 17/01 A2995 RMK A01 T01740005  RH  032%=      5-min Rain = 0
KQU1 161845Z 22013KT 18/01 A2995 RMK A01 T01760005  RH  032%=      5-min Rain = 0
KQU1 161846Z 22013G18KT 18/01 A2995 RMK A01 T01760006  RH  032%=      5-min Rain = 0
KQU1 161847Z 22015KT 17/M00 A2995 RMK A01 T01741001  RH  031%=      5-min Rain = 0
KQU1 161848Z 22014KT 17/00 A2995 RMK A01 T01710001  RH  031%=      5-min Rain = 0
KQU1 161849Z 23015KT 17/00 A2995 RMK A01 T01700001  RH  032%=      5-min Rain = 0
KQU1 161850Z 22013KT 17/01 A2995 RMK A01 T01700006  RH  033%=      5-min Rain = 0
KQU1 161851Z 22013KT 17/M00 A2995 RMK A01 T01691001  RH  031%=      5-min Rain = 0
KQU1 161852Z 23011KT 17/00 A2995 RMK A01 T016900-0  RH  032%=      5-min Rain = 0
KQU1 161853Z 24012KT 17/00 A2995 RMK A01 T01710001  RH  032%=      5-min Rain = 0
KQU1 161854Z 23010KT 17/01 A2995 RMK A01 T01730008  RH  033%=      5-min Rain = 0
KQU1 161855Z 21012KT 17/00 A2995 RMK A01 T01740001  RH  031%=      5-min Rain = 0
KQU1 161856Z 23012KT 17/00 A2994 RMK A01 T01720002  RH  032%=      5-min Rain = 0
KQU1 161857Z 22011KT 17/00 A2994 RMK A01 T01710003  RH  032%=      5-min Rain = 0
KQU1 161858Z 23010KT 17/01 A2994 RMK A01 T01710005  RH  033%=      5-min Rain = 0
KQU1 161859Z 22008KT 17/01 A2994 RMK A01 T01720007  RH  033%=      5-min Rain = 0
KQU1 161900Z 21012KT 18/01 A2994 RMK A01 T01750010  RH  033%=      5-min Rain = 0
KQU1 161901Z 22014KT 18/01 A2994 RMK A01 T01750006  RH  032%=      5-min Rain = 0
KQU1 161902Z 21015KT 18/00 A2994 RMK A01 T01750004  RH  032%=      5-min Rain = 0
KQU1 161903Z 21013KT 17/00 A2994 RMK A01 T01740003  RH  031%=      5-min Rain = 0
KQU1 161904Z 21012KT 17/01 A2994 RMK A01 T01740008  RH  032%=      5-min Rain = 0
KQU1 161905Z 21011KT 18/01 A2994 RMK A01 T01770011  RH  033%=      5-min Rain = 0
KQU1 161906Z 21016KT 18/00 A2994 RMK A01 T01780004  RH  031%=      5-min Rain = 0
KQU1 161907Z 21018KT 18/00 A2994 RMK A01 T01770003  RH  031%=      5-min Rain = 0
KQU1 161908Z 22015KT 18/00 A2994 RMK A01 T01750002  RH  031%=      5-min Rain = 0
KQU1 161909Z 22014KT 18/00 A2994 RMK A01 T01750004  RH  032%=      5-min Rain = 0
KQU1 161910Z 22014KT 17/00 A2994 RMK A01 T01740004  RH  032%=      5-min Rain = 0
KQU1 161911Z 22014KT 17/00 A2994 RMK A01 T01740004  RH  032%=      5-min Rain = 0
KQU1 161912Z 23014KT 17/M00 A2994 RMK A01 T01731002  RH  031%=      5-min Rain = 0
KQU1 161913Z 22012KT 17/00 A2994 RMK A01 T01720003  RH  032%=      5-min Rain = 0
KQU1 161914Z 22011KT 17/00 A2994 RMK A01 T01710003  RH  032%=      5-min Rain = 0
KQU1 161915Z 22011KT 17/01 A2994 RMK A01 T01710005  RH  033%=      5-min Rain = 0
KQU1 161916Z 22014KT 17/01 A2994 RMK A01 T01730005  RH  032%=      5-min Rain = 0
KQU1 161917Z 22013KT 17/01 A2994 RMK A01 T01740006  RH  032%=      5-min Rain = 0
KQU1 161918Z 20015KT 17/00 A2994 RMK A01 T01740002  RH  031%=      5-min Rain = 0
KQU1 161919Z 20015KT 17/01 A2994 RMK A01 T01730005  RH  032%=      5-min Rain = 0
KQU1 161920Z 21013KT 17/01 A2993 RMK A01 T01740009  RH  033%=      5-min Rain = 0
KQU1 161921Z 21014KT 17/01 A2993 RMK A01 T01740007  RH  032%=      5-min Rain = 0
KQU1 161922Z 22017KT 17/00 A2993 RMK A01 T01730004  RH  032%=      5-min Rain = 0
KQU1 161923Z 21016KT 17/00 A2993 RMK A01 T01710002  RH  032%=      5-min Rain = 0
KQU1 161924Z 21016KT 17/00 A2993 RMK A01 T01700003  RH  032%=      5-min Rain = 0
KQU1 161925Z 21016KT 17/00 A2993 RMK A01 T01700003  RH  032%=      5-min Rain = 0
KQU1 161926Z 21016KT 17/00 A2993 RMK A01 T01710004  RH  032%=      5-min Rain = 0
KQU1 161927Z 22015KT 17/01 A2993 RMK A01 T01720005  RH  032%=      5-min Rain = 0
KQU1 161928Z 21016KT 17/00 A2993 RMK A01 T01720001  RH  031%=      5-min Rain = 0
KQU1 161929Z 20015KT 17/M00 A2993 RMK A01 T01721002  RH  031%=      5-min Rain = 0
KQU1 161930Z 20012KT 17/00 A2993 RMK A01 T01710004  RH  032%=      5-min Rain = 0
KQU1 161931Z 21012KT 17/00 A2993 RMK A01 T01730003  RH  032%=      5-min Rain = 0
KQU1 161932Z 21014KT 17/M00 A2993 RMK A01 T01731002  RH  031%=      5-min Rain = 0
KQU1 161933Z 21013KT 17/M00 A2993 RMK A01 T01731002  RH  031%=      5-min Rain = 0
KQU1 161934Z 22011KT 17/00 A2993 RMK A01 T01740004  RH  032%=      5-min Rain = 0
KQU1 161935Z 21011KT 18/01 A2993 RMK A01 T01760007  RH  032%=      5-min Rain = 0
KQU1 161936Z 22012KT 18/00 A2993 RMK A01 T01770004  RH  031%=      5-min Rain = 0
KQU1 161937Z 23010KT 18/M00 A2993 RMK A01 T01761002  RH  030%=      5-min Rain = 0
KQU1 161938Z 22012KT 18/01 A2993 RMK A01 T01770005  RH  031%=      5-min Rain = 0
KQU1 161939Z 22010KT 18/00 A2993 RMK A01 T01780003  RH  031%=      5-min Rain = 0
KQU1 161940Z 23010KT 18/00 A2993 RMK A01 T01770001  RH  030%=      5-min Rain = 0
KQU1 161941Z 22009KT 18/00 A2993 RMK A01 T01780002  RH  030%=      5-min Rain = 0
KQU1 161942Z 22010KT 18/M01 A2992 RMK A01 T01781005  RH  029%=      5-min Rain = 0
KQU1 161943Z 22010KT 18/M00 A2992 RMK A01 T01801004  RH  029%=      5-min Rain = 0
KQU1 161944Z 22013KT 18/M01 A2992 RMK A01 T01801013  RH  027%=      5-min Rain = 0
KQU1 161945Z 22013KT 18/M01 A2992 RMK A01 T01811010  RH  027%=      5-min Rain = 0
KQU1 161946Z 22014KT 18/M01 A2992 RMK A01 T01821007  RH  028%=      5-min Rain = 0
KQU1 161947Z 23012KT 18/M01 A2992 RMK A01 T01831008  RH  027%=      5-min Rain = 0
KQU1 161948Z 21010KT 18/M00 A2992 RMK A01 T01841002  RH  028%=      5-min Rain = 0
KQU1 161949Z 22013KT 19/00 A2992 RMK A01 T01870001  RH  029%=      5-min Rain = 0
KQU1 161950Z 22012KT 19/M01 A2992 RMK A01 T01851012  RH  026%=      5-min Rain = 0
KQU1 161951Z 22010KT 18/M01 A2992 RMK A01 T01841008  RH  027%=      5-min Rain = 0
KQU1 161952Z 22012KT 19/M00 A2992 RMK A01 T01861001  RH  028%=      5-min Rain = 0
KQU1 161953Z 21012KT 19/00 A2992 RMK A01 T01870002  RH  029%=      5-min Rain = 0
KQU1 161954Z 22015KT 19/M00 A2992 RMK A01 T01881001  RH  028%=      5-min Rain = 0
KQU1 161955Z 21015KT 19/M01 A2992 RMK A01 T01861008  RH  027%=      5-min Rain = 0
KQU1 161956Z 22014KT 18/M00 A2992 RMK A01 T01841004  RH  028%=      5-min Rain = 0
KQU1 161957Z 23013KT 18/M01 A2992 RMK A01 T01841006  RH  028%=      5-min Rain = 0
KQU1 161958Z 23015KT 18/M00 A2992 RMK A01 T01841003  RH  028%=      5-min Rain = 0
KQU1 161959Z 22016KT 18/M00 A2992 RMK A01 T01841003  RH  028%=      5-min Rain = 0
KQU1 162000Z 23015KT 18/M00 A2992 RMK A01 T01821003  RH  029%=      5-min Rain = 0
KQU1 162001Z 23016KT 18/M00 A2992 RMK A01 T01811003  RH  029%=      5-min Rain = 0
KQU1 162002Z 22014KT 18/M00 A2992 RMK A01 T01801002  RH  029%=      5-min Rain = 0
KQU1 162003Z 23012KT 18/M00 A2992 RMK A01 T01801001  RH  029%=      5-min Rain = 0
KQU1 162004Z 23010KT 18/M00 A2992 RMK A01 T01791004  RH  029%=      5-min Rain = 0
KQU1 162005Z 21010KT 18/00 A2991 RMK A01 T01790003  RH  030%=      5-min Rain = 0
KQU1 162006Z 21010KT 18/00 A2991 RMK A01 T01800001  RH  030%=      5-min Rain = 0
KQU1 162007Z 20008KT 18/M00 A2991 RMK A01 T01791001  RH  030%=      5-min Rain = 0
KQU1 162008Z 20011KT 18/00 A2991 RMK A01 T01790004  RH  031%=      5-min Rain = 0
KQU1 162009Z 21009KT 18/00 A2991 RMK A01 T01790000  RH  030%=      5-min Rain = 0
KQU1 162010Z 21014G19KT 18/00 A2991 RMK A01 T01800001  RH  030%=      5-min Rain = 0
KQU1 162011Z 23016KT 18/M00 A2991 RMK A01 T01821003  RH  029%=      5-min Rain = 0
KQU1 162012Z 23017KT 18/M00 A2991 RMK A01 T01831002  RH  029%=      5-min Rain = 0
KQU1 162013Z 23014KT 18/M01 A2991 RMK A01 T01821009  RH  027%=      5-min Rain = 0
KQU1 162014Z 23013KT 18/M00 A2991 RMK A01 T01831001  RH  029%=      5-min Rain = 0
KQU1 162015Z 23011KT 18/M01 A2991 RMK A01 T01831008  RH  027%=      5-min Rain = 0
KQU1 162016Z 21010KT 18/M00 A2991 RMK A01 T01841001  RH  029%=      5-min Rain = 0
KQU1 162017Z 21009KT 18/M01 A2991 RMK A01 T01841008  RH  027%=      5-min Rain = 0
KQU1 162018Z 21008KT 18/M01 A2991 RMK A01 T01831009  RH  027%=      5-min Rain = 0
KQU1 162019Z 23011KT 19/00 A2991 RMK A01 T018500-0  RH  029%=      5-min Rain = 0
KQU1 162020Z 23013KT 19/M01 A2991 RMK A01 T01871007  RH  027%=      5-min Rain = 0
KQU1 162021Z 24017KT 19/M01 A2991 RMK A01 T01871011  RH  026%=      5-min Rain = 0
KQU1 162022Z 24013KT 19/M01 A2991 RMK A01 T01851013  RH  026%=      5-min Rain = 0
KQU1 162023Z 22011KT 19/M01 A2991 RMK A01 T01851009  RH  027%=      5-min Rain = 0
KQU1 162024Z 20008KT 19/M01 A2991 RMK A01 T01851012  RH  026%=      5-min Rain = 0
KQU1 162025Z 19013KT 18/M00 A2991 RMK A01 T01831001  RH  029%=      5-min Rain = 0
KQU1 162026Z 19013KT 18/00 A2991 RMK A01 T01830000  RH  029%=      5-min Rain = 0
KQU1 162027Z 19015KT 18/M00 A2991 RMK A01 T01821003  RH  029%=      5-min Rain = 0
KQU1 162028Z 20014KT 18/M00 A2991 RMK A01 T01801003  RH  029%=      5-min Rain = 0
KQU1 162029Z 21011KT 18/M01 A2991 RMK A01 T01781008  RH  028%=      5-min Rain = 0
KQU1 162030Z 20013KT 18/M00 A2991 RMK A01 T01771002  RH  030%=      5-min Rain = 0
KQU1 162031Z 20016KT 18/00 A2991 RMK A01 T01760003  RH  031%=      5-min Rain = 0
KQU1 162032Z 21013KT 18/00 A2991 RMK A01 T017500-0  RH  030%=      5-min Rain = 0
KQU1 162033Z 20011KT 18/00 A2991 RMK A01 T017500-0  RH  030%=      5-min Rain = 0
KQU1 162034Z 21011KT 18/01 A2991 RMK A01 T01780005  RH  031%=      5-min Rain = 0
KQU1 162035Z 21013G18KT 18/00 A2991 RMK A01 T01800004  RH  030%=      5-min Rain = 0
KQU1 162036Z 22016KT 18/00 A299 RMK A01 T01800001  RH  030%=      5-min Rain = 0
KQU1 162037Z 22013KT 18/00 A2991 RMK A01 T01800004  RH  030%=      5-min Rain = 0
KQU1 162038Z 21016KT 18/00 A299 RMK A01 T01800002  RH  030%=      5-min Rain = 0
KQU1 162039Z 20013KT 18/01 A299 RMK A01 T01780006  RH  031%=      5-min Rain = 0
KQU1 162040Z 21013KT 18/01 A299 RMK A01 T01780005  RH  031%=      5-min Rain = 0
KQU1 162041Z 21012KT 18/00 A299 RMK A01 T01770004  RH  031%=      5-min Rain = 0
KQU1 162042Z 19014G19KT 18/00 A299 RMK A01 T01780004  RH  031%=      5-min Rain = 0
KQU1 162043Z 21011G18KT 18/01 A299 RMK A01 T01790010  RH  032%=      5-min Rain = 0
KQU1 162044Z 21013KT 18/00 A299 RMK A01 T01810003  RH  030%=      5-min Rain = 0
KQU1 162045Z 20012KT 18/00 A299 RMK A01 T017900-0  RH  030%=      5-min Rain = 0
KQU1 162046Z 20014KT 18/01 A299 RMK A01 T01780005  RH  031%=      5-min Rain = 0
KQU1 162047Z 21015KT 18/00 A299 RMK A01 T01780003  RH  031%=      5-min Rain = 0
KQU1 162048Z 20015KT 18/00 A299 RMK A01 T017600-0  RH  030%=      5-min Rain = 0
KQU1 162049Z 22012KT 18/M00 A299 RMK A01 T01751004  RH  030%=      5-min Rain = 0
KQU1 162050Z 24012KT 18/M01 A299 RMK A01 T01761009  RH  029%=      5-min Rain = 0
KQU1 162051Z 24014KT 18/M01 A299 RMK A01 T01761013  RH  028%=      5-min Rain = 0
KQU1 162052Z 23014KT 18/M01 A299 RMK A01 T01751014  RH  028%=      5-min Rain = 0
KQU1 162053Z 23014KT 18/M01 A299 RMK A01 T01761011  RH  028%=      5-min Rain = 0
KQU1 162054Z 23015KT 18/M01 A299 RMK A01 T01761011  RH  028%=      5-min Rain = 0
KQU1 162055Z 22012KT 18/M01 A299 RMK A01 T01771011  RH  028%=      5-min Rain = 0
KQU1 162056Z 22012KT 18/M01 A299 RMK A01 T01781009  RH  028%=      5-min Rain = 0
KQU1 162057Z 23011KT 18/M01 A299 RMK A01 T01801008  RH  028%=      5-min Rain = 0
KQU1 162058Z 23013KT 18/M01 A299 RMK A01 T01791011  RH  027%=      5-min Rain = 0
KQU1 162059Z 23011KT 18/M01 A299 RMK A01 T01771013  RH  027%=      5-min Rain = 0
KQU1 162100Z 21012KT 18/M01 A299 RMK A01 T01761008  RH  029%=      5-min Rain = 0
KQU1 162101Z 21013KT 18/M01 A299 RMK A01 T01761008  RH  029%=      5-min Rain = 0
KQU1 162102Z 21014KT 18/M01 A299 RMK A01 T01761010  RH  028%=      5-min Rain = 0
KQU1 162103Z 21013KT 18/M01 A299 RMK A01 T01751010  RH  028%=      5-min Rain = 0
KQU1 162104Z 20013KT 17/M01 A299 RMK A01 T01741014  RH  028%=      5-min Rain = 0
KQU1 162105Z 22012KT 17/M01 A299 RMK A01 T01731011  RH  029%=      5-min Rain = 0
KQU1 162106Z 20009KT 17/M01 A299 RMK A01 T01731006  RH  030%=      5-min Rain = 0
KQU1 162107Z 21011KT 17/M01 A299 RMK A01 T01741007  RH  029%=      5-min Rain = 0
KQU1 162108Z 21013KT 17/M01 A299 RMK A01 T01741008  RH  029%=      5-min Rain = 0
KQU1 162109Z 21012KT 17/M01 A299 RMK A01 T01741010  RH  029%=      5-min Rain = 0
KQU1 162110Z 21013KT 18/M01 A299 RMK A01 T01761010  RH  028%=      5-min Rain = 0
KQU1 162111Z 21011KT 18/M01 A299 RMK A01 T01781012  RH  027%=      5-min Rain = 0
KQU1 162112Z 21010KT 18/M01 A299 RMK A01 T01801009  RH  028%=      5-min Rain = 0
KQU1 162113Z 21014KT 18/M01 A299 RMK A01 T01821008  RH  028%=      5-min Rain = 0
KQU1 162114Z 20014KT 18/M01 A299 RMK A01 T01831012  RH  027%=      5-min Rain = 0
KQU1 162115Z 21011KT 18/M01 A2989 RMK A01 T01831011  RH  027%=      5-min Rain = 0
KQU1 162116Z 23014KT 19/M01 A2989 RMK A01 T01851012  RH  026%=      5-min Rain = 0
KQU1 162117Z 22009KT 19/M01 A2989 RMK A01 T01861007  RH  027%=      5-min Rain = 0
KQU1 162118Z 22014KT 19/M01 A2989 RMK A01 T01891010  RH  026%=      5-min Rain = 0
KQU1 162119Z 21013KT 19/M01 A2989 RMK A01 T01871011  RH  026%=      5-min Rain = 0
KQU1 162120Z 20011KT 19/M00 A2989 RMK A01 T01871002  RH  028%=      5-min Rain = 0
KQU1 162121Z 19012KT 19/01 A2989 RMK A01 T01880009  RH  030%=      5-min Rain = 0
KQU1 162122Z 19014KT 19/01 A2989 RMK A01 T01850009  RH  031%=      5-min Rain = 0
KQU1 162123Z 18015KT 18/01 A2989 RMK A01 T01830012  RH  032%=      5-min Rain = 0
KQU1 162124Z 20013KT 18/01 A2989 RMK A01 T01840014  RH  032%=      5-min Rain = 0
KQU1 162125Z 19014KT 18/01 A2989 RMK A01 T01840013  RH  032%=      5-min Rain = 0
KQU1 162126Z 19015KT 18/01 A2989 RMK A01 T01840010  RH  031%=      5-min Rain = 0
KQU1 162127Z 20013KT 18/01 A2989 RMK A01 T01830007  RH  031%=      5-min Rain = 0
KQU1 162128Z 19014KT 18/01 A2989 RMK A01 T01830009  RH  031%=      5-min Rain = 0
KQU1 162129Z 20011KT 18/01 A2989 RMK A01 T01830008  RH  031%=      5-min Rain = 0
KQU1 162130Z 19012KT 18/01 A2989 RMK A01 T01830005  RH  030%=      5-min Rain = 0
KQU1 162131Z 19011KT 18/01 A2989 RMK A01 T01840012  RH  031%=      5-min Rain = 0
KQU1 162132Z 19012G17KT 19/01 A2989 RMK A01 T01850009  RH  031%=      5-min Rain = 0
KQU1 162133Z 19010KT 19/01 A2989 RMK A01 T01860011  RH  031%=      5-min Rain = 0
KQU1 162134Z 20012KT 19/01 A2989 RMK A01 T01870010  RH  031%=      5-min Rain = 0
KQU1 162135Z 20010KT 19/01 A2989 RMK A01 T01870008  RH  030%=      5-min Rain = 0
KQU1 162136Z 19008KT 19/02 A2989 RMK A01 T01880016  RH  032%=      5-min Rain = 0
KQU1 162137Z 19009KT 19/01 A2989 RMK A01 T01890010  RH  030%=      5-min Rain = 0
KQU1 162138Z 19011KT 19/01 A2989 RMK A01 T01890005  RH  029%=      5-min Rain = 0
KQU1 162139Z 21015KT 19/00 A2989 RMK A01 T01880001  RH  028%=      5-min Rain = 0
KQU1 162140Z 22011KT 19/M01 A2989 RMK A01 T01871006  RH  027%=      5-min Rain = 0
KQU1 162141Z 22010KT 19/M00 A2989 RMK A01 T01861002  RH  028%=      5-min Rain = 0
KQU1 162142Z 22009KT 19/M00 A2989 RMK A01 T01851001  RH  028%=      5-min Rain = 0
KQU1 162143Z 22010KT 18/M00 A2989 RMK A01 T01841002  RH  028%=      5-min Rain = 0
KQU1 162144Z 22008KT 18/M00 A2989 RMK A01 T01831002  RH  029%=      5-min Rain = 0
KQU1 162145Z 21010KT 18/00 A2988 RMK A01 T01840001  RH  029%=      5-min Rain = 0
KQU1 162146Z 20012KT 18/M00 A2988 RMK A01 T01831004  RH  028%=      5-min Rain = 0
KQU1 162147Z 20013KT 18/00 A2988 RMK A01 T01830000  RH  029%=      5-min Rain = 0
KQU1 162148Z 20013KT 18/00 A2988 RMK A01 T01820002  RH  030%=      5-min Rain = 0
KQU1 162149Z 20015KT 18/M00 A2988 RMK A01 T01801001  RH  029%=      5-min Rain = 0
KQU1 162150Z 19013KT 18/00 A2988 RMK A01 T01790000  RH  030%=      5-min Rain = 0
KQU1 162151Z 20012KT 18/00 A2988 RMK A01 T01790002  RH  030%=      5-min Rain = 0
KQU1 162152Z 20012KT 18/M00 A2988 RMK A01 T01781001  RH  030%=      5-min Rain = 0
KQU1 162153Z 20010KT 18/00 A2988 RMK A01 T01790004  RH  031%=      5-min Rain = 0
KQU1 162154Z 20013KT 18/M00 A2988 RMK A01 T01811001  RH  029%=      5-min Rain = 0
KQU1 162155Z 21012KT 18/M00 A2988 RMK A01 T01801003  RH  029%=      5-min Rain = 0
KQU1 162156Z 21010KT 18/M00 A2988 RMK A01 T01801004  RH  029%=      5-min Rain = 0
KQU1 162157Z 21010KT 18/00 A2988 RMK A01 T017900-0  RH  030%=      5-min Rain = 0
KQU1 162158Z 21011KT 18/M00 A2988 RMK A01 T01791001  RH  030%=      5-min Rain = 0
KQU1 162159Z 20014KT 18/00 A2988 RMK A01 T01780000  RH  030%=      5-min Rain = 0
KQU1 162200Z 20015KT 18/00 A2988 RMK A01 T017600-0  RH  030%=      5-min Rain = 0
KQU1 162201Z 20014KT 18/01 A2988 RMK A01 T01750006  RH  032%=      5-min Rain = 0
KQU1 162202Z 20015KT 17/00 A2988 RMK A01 T01730004  RH  032%=      5-min Rain = 0
KQU1 162203Z 20013KT 17/01 A2988 RMK A01 T01720006  RH  033%=      5-min Rain = 0
KQU1 162204Z 20014KT 17/00 A2988 RMK A01 T01710004  RH  032%=      5-min Rain = 0
KQU1 162205Z 20014KT 17/00 A2988 RMK A01 T01710004  RH  032%=      5-min Rain = 0
KQU1 162206Z 20013KT 17/00 A2988 RMK A01 T01700003  RH  032%=      5-min Rain = 0
KQU1 162207Z 20014KT 17/00 A2988 RMK A01 T01700002  RH  032%=      5-min Rain = 0
KQU1 162208Z 20013KT 17/00 A2988 RMK A01 T01700001  RH  032%=      5-min Rain = 0
KQU1 162209Z 19013KT 17/00 A2988 RMK A01 T01700001  RH  032%=      5-min Rain = 0
KQU1 162210Z 19013KT 17/00 A2988 RMK A01 T01700003  RH  032%=      5-min Rain = 0
KQU1 162211Z 19014KT 17/00 A2988 RMK A01 T01700003  RH  032%=      5-min Rain = 0
KQU1 162212Z 19012KT 17/01 A2988 RMK A01 T01700005  RH  033%=      5-min Rain = 0
KQU1 162213Z 20013KT 17/01 A2988 RMK A01 T01700005  RH  033%=      5-min Rain = 0
KQU1 162214Z 20013KT 17/01 A2988 RMK A01 T01690005  RH  033%=      5-min Rain = 0
KQU1 162215Z 20014KT 17/00 A2988 RMK A01 T01690002  RH  032%=      5-min Rain = 0
KQU1 162216Z 20013KT 17/M00 A2988 RMK A01 T01691003  RH  031%=      5-min Rain = 0
KQU1 162217Z 19010KT 17/00 A2988 RMK A01 T01690003  RH  032%=      5-min Rain = 0
KQU1 162218Z 20011KT 17/00 A2988 RMK A01 T01700002  RH  032%=      5-min Rain = 0
KQU1 162219Z 19010KT 17/00 A2988 RMK A01 T01700003  RH  032%=      5-min Rain = 0
KQU1 162220Z 20012KT 17/00 A2988 RMK A01 T01700001  RH  032%=      5-min Rain = 0
KQU1 162221Z 20012KT 17/00 A2988 RMK A01 T01700001  RH  032%=      5-min Rain = 0
KQU1 162222Z 20012KT 17/00 A2988 RMK A01 T01700000  RH  032%=      5-min Rain = 0
KQU1 162223Z 21012KT 17/M00 A2987 RMK A01 T01701002  RH  031%=      5-min Rain = 0
KQU1 162224Z 21012KT 17/M01 A2987 RMK A01 T01701005  RH  030%=      5-min Rain = 0
KQU1 162225Z 20011KT 17/M00 A2987 RMK A01 T01701004  RH  031%=      5-min Rain = 0
KQU1 162226Z 21009KT 17/M00 A2987 RMK A01 T01701003  RH  031%=      5-min Rain = 0
KQU1 162227Z 21009KT 17/M00 A2987 RMK A01 T01701001  RH  031%=      5-min Rain = 0
KQU1 162228Z 20008KT 17/00 A2987 RMK A01 T01700001  RH  032%=      5-min Rain = 0
KQU1 162229Z 20008KT 17/00 A2987 RMK A01 T01700003  RH  032%=      5-min Rain = 0
KQU1 162230Z 21009KT 17/00 A2987 RMK A01 T017000-0  RH  032%=      5-min Rain = 0
KQU1 162231Z 21007KT 17/00 A2987 RMK A01 T01700001  RH  032%=      5-min Rain = 0
KQU1 162232Z 22008KT 17/M00 A2987 RMK A01 T01701001  RH  031%=      5-min Rain = 0
KQU1 162233Z 21007KT 17/00 A2987 RMK A01 T01710002  RH  032%=      5-min Rain = 0
KQU1 162234Z 22008KT 17/M00 A2987 RMK A01 T01731001  RH  031%=      5-min Rain = 0
KQU1 162235Z 22009KT 17/M01 A2987 RMK A01 T01741005  RH  030%=      5-min Rain = 0
KQU1 162236Z 22009KT 18/M00 A2987 RMK A01 T01751001  RH  030%=      5-min Rain = 0
KQU1 162237Z 21007KT 18/M00 A2987 RMK A01 T01761001  RH  030%=      5-min Rain = 0
KQU1 162238Z 22007KT 18/M00 A2987 RMK A01 T01771003  RH  030%=      5-min Rain = 0
KQU1 162239Z 22006KT 18/M00 A2987 RMK A01 T01771003  RH  029%=      5-min Rain = 0
KQU1 162240Z 23006KT 18/M00 A2987 RMK A01 T01781001  RH  030%=      5-min Rain = 0
KQU1 162241Z 23006KT 18/00 A2987 RMK A01 T01790000  RH  030%=      5-min Rain = 0
KQU1 162242Z 23008KT 18/M00 A2987 RMK A01 T01791003  RH  029%=      5-min Rain = 0
KQU1 162243Z 22007KT 18/00 A2987 RMK A01 T01780000  RH  030%=      5-min Rain = 0
KQU1 162244Z 22006KT 18/M00 A2987 RMK A01 T01781001  RH  030%=      5-min Rain = 0
KQU1 162245Z 22007KT 18/00 A2987 RMK A01 T01770002  RH  031%=      5-min Rain = 0
KQU1 162246Z 22007KT 18/M00 A2987 RMK A01 T01761004  RH  029%=      5-min Rain = 0
KQU1 162247Z 22008KT 18/M00 A2987 RMK A01 T01751003  RH  030%=      5-min Rain = 0
KQU1 162248Z 22007KT 17/M00 A2987 RMK A01 T01741001  RH  031%=      5-min Rain = 0
KQU1 162249Z 22007KT 17/M00 A2987 RMK A01 T01731002  RH  031%=      5-min Rain = 0
KQU1 162250Z 21006KT 17/00 A2987 RMK A01 T01720001  RH  031%=      5-min Rain = 0
KQU1 162251Z 20006KT 17/00 A2987 RMK A01 T01720004  RH  032%=      5-min Rain = 0
KQU1 162252Z 20007KT 17/M00 A2987 RMK A01 T01711002  RH  031%=      5-min Rain = 0
KQU1 162253Z 20006KT 17/M00 A2987 RMK A01 T01711001  RH  031%=      5-min Rain = 0
KQU1 162254Z 20005KT 17/00 A2987 RMK A01 T01700004  RH  032%=      5-min Rain = 0
KQU1 162255Z 20006KT 17/01 A2987 RMK A01 T01700005  RH  033%=      5-min Rain = 0
KQU1 162256Z 19006KT 17/00 A2987 RMK A01 T01690003  RH  032%=      5-min Rain = 0
KQU1 162257Z 19007KT 17/00 A2987 RMK A01 T01700002  RH  032%=      5-min Rain = 0
KQU1 162258Z 20006KT 17/00 A2987 RMK A01 T01700003  RH  032%=      5-min Rain = 0
KQU1 162259Z 19005KT 17/01 A2987 RMK A01 T01700005  RH  033%=      5-min Rain = 0
KQU1 162300Z 19006KT 17/00 A2987 RMK A01 T01700003  RH  032%=      5-min Rain = 0
KQU1 162301Z 19008KT 17/M00 A2987 RMK A01 T01701001  RH  031%=      5-min Rain = 0
KQU1 162302Z 19009KT 17/M00 A2987 RMK A01 T01701002  RH  031%=      5-min Rain = 0
KQU1 162303Z 19009KT 17/M00 A2987 RMK A01 T01701001  RH  031%=      5-min Rain = 0
KQU1 162304Z 19009KT 17/00 A2987 RMK A01 T01700003  RH  032%=      5-min Rain = 0
KQU1 162305Z 18008KT 17/01 A2987 RMK A01 T01710006  RH  033%=      5-min Rain = 0
KQU1 162306Z 18009KT 17/01 A2987 RMK A01 T01720007  RH  033%=      5-min Rain = 0
KQU1 162307Z 18010KT 17/01 A2987 RMK A01 T01730006  RH  032%=      5-min Rain = 0
KQU1 162308Z 18010KT 17/01 A2987 RMK A01 T01740008  RH  033%=      5-min Rain = 0
KQU1 162309Z 18010KT 17/01 A2986 RMK A01 T01740007  RH  032%=      5-min Rain = 0
KQU1 162310Z 18010KT 17/01 A2986 RMK A01 T01740006  RH  032%=      5-min Rain = 0
KQU1 162311Z 18009KT 17/01 A2986 RMK A01 T01740007  RH  032%=      5-min Rain = 0
KQU1 162312Z 18009KT 17/01 A2986 RMK A01 T01730008  RH  033%=      5-min Rain = 0
KQU1 162313Z 18009KT 17/01 A2986 RMK A01 T01720007  RH  033%=      5-min Rain = 0
KQU1 162314Z 17009KT 17/01 A2986 RMK A01 T01710011  RH  034%=      5-min Rain = 0
KQU1 162315Z 18010G15KT 17/01 A2986 RMK A01 T01700014  RH  035%=      5-min Rain = 0
KQU1 162316Z 18013KT 17/01 A2986 RMK A01 T01680008  RH  034%=      5-min Rain = 0
KQU1 162317Z 17011KT 17/01 A2986 RMK A01 T01670014  RH  036%=      5-min Rain = 0
KQU1 162318Z 17012KT 17/01 A2986 RMK A01 T01650014  RH  036%=      5-min Rain = 0
KQU1 162319Z 18010KT 16/02 A2986 RMK A01 T01630017  RH  037%=      5-min Rain = 0
KQU1 162320Z 17011KT 16/02 A2986 RMK A01 T01610017  RH  038%=      5-min Rain = 0
KQU1 162321Z 17011KT 16/02 A2986 RMK A01 T01600017  RH  038%=      5-min Rain = 0
KQU1 162322Z 17012KT 16/02 A2986 RMK A01 T01580018  RH  039%=      5-min Rain = 0
KQU1 162323Z 17010KT 16/02 A2986 RMK A01 T01570018  RH  039%=      5-min Rain = 0
KQU1 162324Z 17010KT 16/02 A2986 RMK A01 T01560020  RH  040%=      5-min Rain = 0
KQU1 162325Z 18011KT 16/02 A2986 RMK A01 T01550019  RH  040%=      5-min Rain = 0
KQU1 162326Z 18010KT 16/02 A2986 RMK A01 T01550020  RH  040%=      5-min Rain = 0
KQU1 162327Z 18011KT 15/02 A2986 RMK A01 T01540021  RH  041%=      5-min Rain = 0
KQU1 162328Z 18010KT 15/02 A2986 RMK A01 T01540020  RH  040%=      5-min Rain = 0
KQU1 162329Z 18009KT 15/02 A2986 RMK A01 T01540019  RH  040%=      5-min Rain = 0
KQU1 162330Z 18009KT 15/02 A2986 RMK A01 T01530020  RH  040%=      5-min Rain = 0
KQU1 162331Z 18010KT 15/02 A2986 RMK A01 T01530021  RH  041%=      5-min Rain = 0
KQU1 162332Z 18008KT 15/02 A2986 RMK A01 T01530021  RH  041%=      5-min Rain = 0
KQU1 162333Z 18009KT 15/02 A2986 RMK A01 T01530021  RH  041%=      5-min Rain = 0
KQU1 162334Z 18008KT 15/02 A2986 RMK A01 T01530022  RH  041%=      5-min Rain = 0
KQU1 162335Z 18008KT 15/02 A2986 RMK A01 T01520024  RH  042%=      5-min Rain = 0
KQU1 162336Z 18008KT 15/03 A2986 RMK A01 T01520026  RH  043%=      5-min Rain = 0
KQU1 162337Z 19007KT 15/03 A2986 RMK A01 T01510027  RH  043%=      5-min Rain = 0
KQU1 162338Z 18007KT 15/03 A2986 RMK A01 T01510028  RH  044%=      5-min Rain = 0
KQU1 162339Z 18007KT 15/03 A2986 RMK A01 T01500029  RH  044%=      5-min Rain = 0
KQU1 162340Z 17006KT 15/03 A2986 RMK A01 T01500029  RH  044%=      5-min Rain = 0
KQU1 162341Z 18008KT 15/03 A2986 RMK A01 T01500028  RH  044%=      5-min Rain = 0
KQU1 162342Z 18008KT 15/03 A2986 RMK A01 T01510027  RH  043%=      5-min Rain = 0
KQU1 162343Z 18008KT 15/03 A2986 RMK A01 T01510027  RH  043%=      5-min Rain = 0
KQU1 162344Z 18008KT 15/03 A2986 RMK A01 T01520028  RH  043%=      5-min Rain = 0
KQU1 162345Z 18008KT 15/03 A2986 RMK A01 T01530029  RH  043%=      5-min Rain = 0
KQU1 162346Z 18009KT 15/03 A2986 RMK A01 T01540027  RH  042%=      5-min Rain = 0
KQU1 162347Z 18010KT 16/03 A2986 RMK A01 T01560026  RH  042%=      5-min Rain = 0
KQU1 162348Z 18009KT 16/03 A2986 RMK A01 T01570027  RH  041%=      5-min Rain = 0
KQU1 162349Z 18011G16KT 16/02 A2986 RMK A01 T01580024  RH  040%=      5-min Rain = 0
KQU1 162350Z 18012KT 16/02 A2986 RMK A01 T01600019  RH  039%=      5-min Rain = 0
KQU1 162351Z 18010KT 16/02 A2986 RMK A01 T01610022  RH  039%=      5-min Rain = 0
KQU1 162352Z 18011KT 16/02 A2986 RMK A01 T01620021  RH  039%=      5-min Rain = 0
KQU1 162353Z 19011KT 16/02 A2986 RMK A01 T01620020  RH  038%=      5-min Rain = 0
KQU1 162354Z 18012KT 16/02 A2986 RMK A01 T01620017  RH  038%=      5-min Rain = 0
KQU1 162355Z 18013KT 16/01 A2986 RMK A01 T01620014  RH  037%=      5-min Rain = 0
KQU1 162356Z 19013KT 16/01 A2986 RMK A01 T01610013  RH  037%=      5-min Rain = 0
KQU1 162357Z 19014KT 16/01 A2986 RMK A01 T01600013  RH  037%=      5-min Rain = 0
KQU1 162358Z 19013KT 16/01 A2986 RMK A01 T01590012  RH  037%=      5-min Rain = 0
KQU1 162359Z 19011KT 16/01 A2986 RMK A01 T01580014  RH  038%=      5-min Rain = 0
KQU1 170000Z 19013KT 16/01 A2986 RMK A01 T01570013  RH  038%=      5-min Rain = 0
KQU1 170001Z 19011KT 16/01 A2986 RMK A01 T01560014  RH  038%=      5-min Rain = 0
KQU1 170002Z 19011KT 16/02 A2986 RMK A01 T01550016  RH  039%=      5-min Rain = 0
KQU1 170003Z 19012KT 15/02 A2986 RMK A01 T01540015  RH  039%=      5-min Rain = 0
KQU1 170004Z 18011KT 15/02 A2986 RMK A01 T01530016  RH  040%=      5-min Rain = 0
KQU1 170005Z 19012KT 15/02 A2986 RMK A01 T01520015  RH  039%=      5-min Rain = 0
KQU1 170006Z 18011KT 15/02 A2986 RMK A01 T01520015  RH  040%=      5-min Rain = 0
KQU1 170007Z 19011KT 15/02 A2986 RMK A01 T01510016  RH  040%=      5-min Rain = 0
KQU1 170008Z 19011KT 15/02 A2986 RMK A01 T01500017  RH  040%=      5-min Rain = 0
KQU1 170009Z 19010KT 15/02 A2986 RMK A01 T01500018  RH  041%=      5-min Rain = 0
KQU1 170010Z 19011KT 15/02 A2986 RMK A01 T01490017  RH  041%=      5-min Rain = 0
KQU1 170011Z 19011KT 15/02 A2986 RMK A01 T01490016  RH  041%=      5-min Rain = 0
KQU1 170012Z 19010KT 15/02 A2986 RMK A01 T01480017  RH  041%=      5-min Rain = 0
KQU1 170013Z 20009KT 15/02 A2986 RMK A01 T01480016  RH  041%=      5-min Rain = 0
KQU1 170014Z 19009KT 15/02 A2986 RMK A01 T01470018  RH  042%=      5-min Rain = 0
KQU1 170015Z 20009KT 15/02 A2986 RMK A01 T01470020  RH  042%=      5-min Rain = 0
KQU1 170016Z 19009KT 15/02 A2986 RMK A01 T01460018  RH  042%=      5-min Rain = 0
KQU1 170017Z 19009KT 15/02 A2986 RMK A01 T01450018  RH  042%=      5-min Rain = 0
KQU1 170018Z 19009KT 14/02 A2986 RMK A01 T01440021  RH  043%=      5-min Rain = 0
KQU1 170019Z 19008KT 14/02 A2986 RMK A01 T01430021  RH  044%=      5-min Rain = 0
KQU1 170020Z 19010KT 14/02 A2986 RMK A01 T01420019  RH  043%=      5-min Rain = 0
KQU1 170021Z 19010KT 14/02 A2986 RMK A01 T01410018  RH  043%=      5-min Rain = 0
KQU1 170022Z 20011KT 14/02 A2986 RMK A01 T01410019  RH  043%=      5-min Rain = 0
KQU1 170023Z 19011KT 14/02 A2986 RMK A01 T01400018  RH  044%=      5-min Rain = 0
KQU1 170024Z 20011KT 14/02 A2986 RMK A01 T01400016  RH  043%=      5-min Rain = 0
KQU1 170025Z 20011KT 14/02 A2986 RMK A01 T01400016  RH  043%=      5-min Rain = 0
KQU1 170026Z 20011G16KT 14/02 A2986 RMK A01 T01400017  RH  043%=      5-min Rain = 0
KQU1 170027Z 20012KT 14/02 A2986 RMK A01 T01390017  RH  043%=      5-min Rain = 0
KQU1 170028Z 20010KT 14/02 A2986 RMK A01 T01380018  RH  044%=      5-min Rain = 0
KQU1 170029Z 20011KT 14/02 A2986 RMK A01 T01370019  RH  045%=      5-min Rain = 0
KQU1 170030Z 20010KT 14/02 A2986 RMK A01 T01360019  RH  045%=      5-min Rain = 0
KQU1 170031Z 20010KT 14/02 A2986 RMK A01 T01350020  RH  046%=      5-min Rain = 0
KQU1 170032Z 20010KT 13/02 A2986 RMK A01 T01340019  RH  046%=      5-min Rain = 0
KQU1 170033Z 20010KT 13/02 A2986 RMK A01 T01330019  RH  046%=      5-min Rain = 0
KQU1 170034Z 20010KT 13/02 A2986 RMK A01 T01330020  RH  046%=      5-min Rain = 0
KQU1 170035Z 20010KT 13/02 A2986 RMK A01 T01320020  RH  047%=      5-min Rain = 0
KQU1 170036Z 20010KT 13/02 A2986 RMK A01 T01310021  RH  047%=      5-min Rain = 0
KQU1 170037Z 19010KT 13/02 A2986 RMK A01 T01300021  RH  048%=      5-min Rain = 0
KQU1 170038Z 20010KT 13/02 A2986 RMK A01 T01280021  RH  048%=      5-min Rain = 0
KQU1 170039Z 20009KT 13/02 A2986 RMK A01 T01270021  RH  048%=      5-min Rain = 0
KQU1 170040Z 20009KT 13/02 A2986 RMK A01 T01260022  RH  049%=      5-min Rain = 0
KQU1 170041Z 20009KT 13/02 A2986 RMK A01 T01250022  RH  050%=      5-min Rain = 0
KQU1 170042Z 20009KT 12/02 A2986 RMK A01 T01240023  RH  050%=      5-min Rain = 0
KQU1 170043Z 20009KT 12/02 A2986 RMK A01 T01230023  RH  051%=      5-min Rain = 0
KQU1 170044Z 20009KT 12/02 A2986 RMK A01 T01220024  RH  051%=      5-min Rain = 0
KQU1 170045Z 20009KT 12/02 A2986 RMK A01 T01200024  RH  052%=      5-min Rain = 0
KQU1 170046Z 20009KT 12/02 A2986 RMK A01 T01190024  RH  052%=      5-min Rain = 0
KQU1 170047Z 20009KT 12/02 A2986 RMK A01 T01180024  RH  053%=      5-min Rain = 0
KQU1 170048Z 20009KT 12/02 A2986 RMK A01 T01160024  RH  053%=      5-min Rain = 0
KQU1 170049Z 20009KT 12/02 A2986 RMK A01 T01150024  RH  053%=      5-min Rain = 0
KQU1 170050Z 20009KT 11/03 A2987 RMK A01 T01140025  RH  054%=      5-min Rain = 0
KQU1 170051Z 20009KT 11/02 A2987 RMK A01 T01130024  RH  055%=      5-min Rain = 0
KQU1 170052Z 20009KT 11/02 A2986 RMK A01 T01110024  RH  055%=      5-min Rain = 0
KQU1 170053Z 20009KT 11/02 A2986 RMK A01 T01100024  RH  055%=      5-min Rain = 0
KQU1 170054Z 20009KT 11/02 A2986 RMK A01 T01090024  RH  056%=      5-min Rain = 0
KQU1 170055Z 20009KT 11/02 A2986 RMK A01 T01080023  RH  056%=      5-min Rain = 0
KQU1 170056Z 20009KT 11/02 A2986 RMK A01 T01070023  RH  056%=      5-min Rain = 0
KQU1 170057Z 20009KT 11/02 A2986 RMK A01 T01060022  RH  056%=      5-min Rain = 0
KQU1 170058Z 20009KT 11/02 A2986 RMK A01 T01050022  RH  056%=      5-min Rain = 0
KQU1 170059Z 20009KT 10/02 A2986 RMK A01 T01040022  RH  057%=      5-min Rain = 0
KQU1 170100Z 20009KT 10/02 A2986 RMK A01 T01030022  RH  057%=      5-min Rain = 0
KQU1 170101Z 20009KT 10/02 A2986 RMK A01 T01020022  RH  057%=      5-min Rain = 0
KQU1 170102Z 20009KT 10/02 A2986 RMK A01 T01010022  RH  058%=      5-min Rain = 0
KQU1 170103Z 20009KT 10/02 A2986 RMK A01 T01010021  RH  058%=      5-min Rain = 0
KQU1 170104Z 20009KT 10/02 A2986 RMK A01 T01000021  RH  058%=      5-min Rain = 0
KQU1 170105Z 21009KT 10/02 A2986 RMK A01 T00990021  RH  058%=      5-min Rain = 0
KQU1 170106Z 20010KT 10/02 A2986 RMK A01 T00990021  RH  058%=      5-min Rain = 0
KQU1 170107Z 20010KT 10/02 A2986 RMK A01 T00980021  RH  058%=      5-min Rain = 0
KQU1 170108Z 20009KT 10/02 A2986 RMK A01 T00980021  RH  059%=      5-min Rain = 0
KQU1 170109Z 20010KT 10/02 A2986 RMK A01 T00970022  RH  059%=      5-min Rain = 0
KQU1 170110Z 20009KT 10/02 A2986 RMK A01 T00970021  RH  059%=      5-min Rain = 0
KQU1 170111Z 20010KT 10/02 A2986 RMK A01 T00970020  RH  059%=      5-min Rain = 0
KQU1 170112Z 20010KT 10/02 A2986 RMK A01 T00970021  RH  059%=      5-min Rain = 0
KQU1 170113Z 20010KT 10/02 A2986 RMK A01 T00970021  RH  059%=      5-min Rain = 0
KQU1 170114Z 20010KT 10/02 A2986 RMK A01 T00970021  RH  059%=      5-min Rain = 0
KQU1 170115Z 20010KT 10/02 A2986 RMK A01 T00960021  RH  059%=      5-min Rain = 0
KQU1 170116Z 20010KT 10/02 A2986 RMK A01 T00950021  RH  060%=      5-min Rain = 0
KQU1 170117Z 20010KT 10/02 A2986 RMK A01 T00950021  RH  060%=      5-min Rain = 0
KQU1 170118Z 20010KT 10/02 A2986 RMK A01 T00950021  RH  060%=      5-min Rain = 0
KQU1 170119Z 20009KT 10/02 A2986 RMK A01 T00950021  RH  060%=      5-min Rain = 0
KQU1 170120Z 20009KT 10/02 A2986 RMK A01 T00950021  RH  060%=      5-min Rain = 0
KQU1 170121Z 20010KT 10/02 A2986 RMK A01 T00950021  RH  060%=      5-min Rain = 0
KQU1 170122Z 20009KT 10/02 A2986 RMK A01 T00950021  RH  060%=      5-min Rain = 0
KQU1 170123Z 20009KT 10/02 A2986 RMK A01 T00950021  RH  060%=      5-min Rain = 0
KQU1 170124Z 20009KT 09/02 A2986 RMK A01 T00940021  RH  060%=      5-min Rain = 0
KQU1 170125Z 20009KT 09/02 A2986 RMK A01 T00930021  RH  061%=      5-min Rain = 0
KQU1 170126Z 20009KT 09/02 A2986 RMK A01 T00920021  RH  061%=      5-min Rain = 0
KQU1 170127Z 20010KT 09/02 A2986 RMK A01 T00920021  RH  061%=      5-min Rain = 0
KQU1 170128Z 20010KT 09/02 A2986 RMK A01 T00910021  RH  062%=      5-min Rain = 0
KQU1 170129Z 20010KT 09/02 A2986 RMK A01 T00910022  RH  062%=      5-min Rain = 0
KQU1 170130Z 20010KT 09/02 A2986 RMK A01 T00900022  RH  062%=      5-min Rain = 0
KQU1 170131Z 20010KT 09/02 A2986 RMK A01 T00900021  RH  062%=      5-min Rain = 0
KQU1 170132Z 19010KT 09/02 A2986 RMK A01 T00890022  RH  063%=      5-min Rain = 0
KQU1 170133Z 19009KT 09/02 A2986 RMK A01 T00890022  RH  063%=      5-min Rain = 0
KQU1 170134Z 20009KT 09/02 A2986 RMK A01 T00880022  RH  063%=      5-min Rain = 0
KQU1 170135Z 19009KT 09/02 A2986 RMK A01 T00870022  RH  063%=      5-min Rain = 0
KQU1 170136Z 19010KT 09/02 A2986 RMK A01 T00860022  RH  064%=      5-min Rain = 0
KQU1 170137Z 19009KT 09/02 A2986 RMK A01 T00850022  RH  064%=      5-min Rain = 0
KQU1 170138Z 19008KT 08/02 A2986 RMK A01 T00840022  RH  065%=      5-min Rain = 0
KQU1 170139Z 19008KT 08/02 A2986 RMK A01 T00830022  RH  065%=      5-min Rain = 0
KQU1 170140Z 19008KT 08/02 A2986 RMK A01 T00820022  RH  066%=      5-min Rain = 0
KQU1 170141Z 19008KT 08/02 A2986 RMK A01 T00810022  RH  066%=      5-min Rain = 0
KQU1 170142Z 19008KT 08/02 A2986 RMK A01 T00800022  RH  067%=      5-min Rain = 0
KQU1 170143Z 19007KT 08/02 A2986 RMK A01 T00790022  RH  067%=      5-min Rain = 0
KQU1 170144Z 20007KT 08/02 A2986 RMK A01 T00780021  RH  067%=      5-min Rain = 0
KQU1 170145Z 20006KT 08/02 A2986 RMK A01 T00770020  RH  067%=      5-min Rain = 0
KQU1 170146Z 20006KT 08/02 A2986 RMK A01 T00760020  RH  068%=      5-min Rain = 0
KQU1 170147Z 20006KT 08/02 A2986 RMK A01 T00750020  RH  068%=      5-min Rain = 0
KQU1 170148Z 20006KT 08/02 A2986 RMK A01 T00750020  RH  068%=      5-min Rain = 0
KQU1 170149Z 20007KT 07/02 A2986 RMK A01 T00740021  RH  069%=      5-min Rain = 0
KQU1 170150Z 20007KT 07/02 A2986 RMK A01 T00740021  RH  069%=      5-min Rain = 0
KQU1 170151Z 20007KT 07/02 A2986 RMK A01 T00740020  RH  069%=      5-min Rain = 0
KQU1 170152Z 19007KT 07/02 A2986 RMK A01 T00740020  RH  069%=      5-min Rain = 0
KQU1 170153Z 19007KT 07/02 A2986 RMK A01 T00730021  RH  069%=      5-min Rain = 0
KQU1 170154Z 20007KT 07/02 A2986 RMK A01 T00730021  RH  070%=      5-min Rain = 0
KQU1 170155Z 20007KT 07/02 A2986 RMK A01 T00730021  RH  070%=      5-min Rain = 0
KQU1 170156Z 20007KT 07/02 A2986 RMK A01 T00730021  RH  070%=      5-min Rain = 0
KQU1 170157Z 20007KT 07/02 A2986 RMK A01 T00740021  RH  069%=      5-min Rain = 0
KQU1 170158Z 20007KT 08/02 A2986 RMK A01 T00750020  RH  068%=      5-min Rain = 0
KQU1 170159Z 20008KT 08/02 A2986 RMK A01 T00750020  RH  068%=      5-min Rain = 0
KQU1 170200Z 20008KT 08/02 A2986 RMK A01 T00760021  RH  068%=      5-min Rain = 0
KQU1 170201Z 20008KT 08/02 A2986 RMK A01 T00770021  RH  068%=      5-min Rain = 0
KQU1 170202Z 20008KT 08/02 A2986 RMK A01 T00780021  RH  067%=      5-min Rain = 0
KQU1 170203Z 19008KT 08/02 A2986 RMK A01 T00790022  RH  067%=      5-min Rain = 0
KQU1 170204Z 19008KT 08/02 A2986 RMK A01 T00790022  RH  067%=      5-min Rain = 0
KQU1 170205Z 20008KT 08/02 A2986 RMK A01 T00790021  RH  067%=      5-min Rain = 0
KQU1 170206Z 20008KT 08/02 A2986 RMK A01 T00790021  RH  067%=      5-min Rain = 0
KQU1 170207Z 20008KT 08/02 A2986 RMK A01 T00790022  RH  067%=      5-min Rain = 0
KQU1 170208Z 20008KT 08/02 A2986 RMK A01 T00790021  RH  067%=      5-min Rain = 0
KQU1 170209Z 21008KT 08/02 A2986 RMK A01 T00790022  RH  067%=      5-min Rain = 0
KQU1 170210Z 21008KT 08/02 A2986 RMK A01 T00790022  RH  067%=      5-min Rain = 0
KQU1 170211Z 21007KT 08/02 A2986 RMK A01 T00790022  RH  067%=      5-min Rain = 0
KQU1 170212Z 21007KT 08/02 A2986 RMK A01 T00800022  RH  067%=      5-min Rain = 0
KQU1 170213Z 21008KT 08/02 A2986 RMK A01 T00810022  RH  066%=      5-min Rain = 0
KQU1 170214Z 21009KT 08/02 A2986 RMK A01 T00830021  RH  065%=      5-min Rain = 0
KQU1 170215Z 20009KT 09/02 A2986 RMK A01 T00860020  RH  064%=      5-min Rain = 0
KQU1 170216Z 21009KT 09/02 A2986 RMK A01 T00880019  RH  062%=      5-min Rain = 0
KQU1 170217Z 20009KT 09/02 A2986 RMK A01 T00900019  RH  061%=      5-min Rain = 0
KQU1 170218Z 20008KT 09/02 A2986 RMK A01 T00900020  RH  061%=      5-min Rain = 0
KQU1 170219Z 20008KT 09/02 A2986 RMK A01 T00910019  RH  061%=      5-min Rain = 0
KQU1 170220Z 20009KT 09/02 A2986 RMK A01 T00900018  RH  061%=      5-min Rain = 0
KQU1 170221Z 20009KT 09/02 A2986 RMK A01 T00900018  RH  061%=      5-min Rain = 0
KQU1 170222Z 20009KT 09/02 A2986 RMK A01 T00890018  RH  061%=      5-min Rain = 0
KQU1 170223Z 20009KT 09/02 A2986 RMK A01 T00890018  RH  061%=      5-min Rain = 0
KQU1 170224Z 20009KT 09/02 A2986 RMK A01 T00880017  RH  061%=      5-min Rain = 0
KQU1 170225Z 20009KT 09/02 A2986 RMK A01 T00890016  RH  060%=      5-min Rain = 0
KQU1 170226Z 20009KT 09/02 A2986 RMK A01 T00890017  RH  061%=      5-min Rain = 0
KQU1 170227Z 20009KT 09/02 A2986 RMK A01 T00880016  RH  061%=      5-min Rain = 0
KQU1 170228Z 20009KT 09/02 A2986 RMK A01 T00880016  RH  061%=      5-min Rain = 0
KQU1 170229Z 20009KT 09/02 A2986 RMK A01 T00880016  RH  061%=      5-min Rain = 0
KQU1 170230Z 20009KT 09/02 A2986 RMK A01 T00880015  RH  060%=      5-min Rain = 0
KQU1 170231Z 20009KT 09/01 A2986 RMK A01 T00880014  RH  060%=      5-min Rain = 0
KQU1 170232Z 20009KT 09/01 A2986 RMK A01 T00880014  RH  060%=      5-min Rain = 0
KQU1 170233Z 20009KT 09/01 A2986 RMK A01 T00880014  RH  060%=      5-min Rain = 0
KQU1 170234Z 20009KT 09/01 A2986 RMK A01 T00880013  RH  059%=      5-min Rain = 0
KQU1 170235Z 20009KT 09/01 A2986 RMK A01 T00880014  RH  059%=      5-min Rain = 0
KQU1 170236Z 20009KT 09/01 A2986 RMK A01 T00880013  RH  059%=      5-min Rain = 0
KQU1 170237Z 20009KT 09/01 A2986 RMK A01 T00880012  RH  059%=      5-min Rain = 0
KQU1 170238Z 20009KT 09/01 A2986 RMK A01 T00890012  RH  059%=      5-min Rain = 0
KQU1 170239Z 19009KT 09/01 A2986 RMK A01 T00880012  RH  059%=      5-min Rain = 0
KQU1 170240Z 19008KT 09/01 A2986 RMK A01 T00870012  RH  059%=      5-min Rain = 0
KQU1 170241Z 20009KT 09/01 A2986 RMK A01 T00860012  RH  060%=      5-min Rain = 0
KQU1 170242Z 20009KT 09/01 A2986 RMK A01 T00850012  RH  060%=      5-min Rain = 0
KQU1 170243Z 20009KT 09/01 A2986 RMK A01 T00850011  RH  060%=      5-min Rain = 0
KQU1 170244Z 20009KT 09/01 A2986 RMK A01 T00850011  RH  060%=      5-min Rain = 0
KQU1 170245Z 20009KT 09/01 A2986 RMK A01 T00850011  RH  059%=      5-min Rain = 0
KQU1 170246Z 20008KT 09/01 A2986 RMK A01 T00860011  RH  059%=      5-min Rain = 0
KQU1 170247Z 20009KT 09/01 A2986 RMK A01 T00870010  RH  058%=      5-min Rain = 0
KQU1 170248Z 20009KT 09/01 A2986 RMK A01 T00880009  RH  058%=      5-min Rain = 0
KQU1 170249Z 20010KT 09/01 A2986 RMK A01 T00900008  RH  056%=      5-min Rain = 0
KQU1 170250Z 20010KT 09/01 A2986 RMK A01 T00920007  RH  055%=      5-min Rain = 0
KQU1 170251Z 20010KT 09/01 A2986 RMK A01 T00940007  RH  054%=      5-min Rain = 0
KQU1 170252Z 20009KT 10/01 A2986 RMK A01 T00950007  RH  054%=      5-min Rain = 0
KQU1 170253Z 20010KT 10/01 A2986 RMK A01 T00950007  RH  054%=      5-min Rain = 0
KQU1 170254Z 20010KT 10/01 A2986 RMK A01 T00950007  RH  054%=      5-min Rain = 0
KQU1 170255Z 20010KT 10/01 A2986 RMK A01 T00960006  RH  053%=      5-min Rain = 0
KQU1 170256Z 20010KT 10/01 A2986 RMK A01 T00960006  RH  053%=      5-min Rain = 0
KQU1 170257Z 20009KT 10/01 A2986 RMK A01 T00960006  RH  053%=      5-min Rain = 0
KQU1 170258Z 20009KT 10/01 A2986 RMK A01 T00960006  RH  053%=      5-min Rain = 0
KQU1 170259Z 20010KT 10/01 A2986 RMK A01 T00960006  RH  053%=      5-min Rain = 0
KQU1 170300Z 20009KT 10/01 A2986 RMK A01 T00960007  RH  054%=      5-min Rain = 0
KQU1 170301Z 20009KT 10/01 A2986 RMK A01 T00960007  RH  054%=      5-min Rain = 0
KQU1 170302Z 20010KT 10/01 A2986 RMK A01 T00950007  RH  054%=      5-min Rain = 0
KQU1 170303Z 20010KT 10/01 A2986 RMK A01 T00950006  RH  054%=      5-min Rain = 0
KQU1 170304Z 20010KT 10/01 A2986 RMK A01 T00960007  RH  054%=      5-min Rain = 0
KQU1 170305Z 20009KT 10/01 A2986 RMK A01 T00950007  RH  054%=      5-min Rain = 0
KQU1 170306Z 20009KT 09/01 A2986 RMK A01 T00940008  RH  055%=      5-min Rain = 0
KQU1 170307Z 20009KT 09/01 A2986 RMK A01 T00940008  RH  055%=      5-min Rain = 0
KQU1 170308Z 20011KT 09/01 A2986 RMK A01 T00940007  RH  054%=      5-min Rain = 0
KQU1 170309Z 20010KT 10/01 A2986 RMK A01 T00950007  RH  054%=      5-min Rain = 0
KQU1 170310Z 20011KT 10/01 A2986 RMK A01 T00950007  RH  054%=      5-min Rain = 0
KQU1 170311Z 20010KT 10/01 A2986 RMK A01 T00960008  RH  054%=      5-min Rain = 0
KQU1 170312Z 20010KT 10/01 A2986 RMK A01 T00960008  RH  054%=      5-min Rain = 0
KQU1 170313Z 21010KT 10/01 A2986 RMK A01 T00960008  RH  054%=      5-min Rain = 0
KQU1 170314Z 21010KT 10/01 A2986 RMK A01 T00950009  RH  055%=      5-min Rain = 0
KQU1 170315Z 20011KT 10/01 A2986 RMK A01 T00950010  RH  055%=      5-min Rain = 0
KQU1 170316Z 21011KT 10/01 A2986 RMK A01 T00960009  RH  055%=      5-min Rain = 0
KQU1 170317Z 21011KT 10/01 A2986 RMK A01 T00970010  RH  055%=      5-min Rain = 0
KQU1 170318Z 21010KT 10/01 A2986 RMK A01 T00970010  RH  055%=      5-min Rain = 0
KQU1 170319Z 21010KT 10/01 A2985 RMK A01 T00970010  RH  055%=      5-min Rain = 0
KQU1 170320Z 20012KT 10/01 A2985 RMK A01 T00970010  RH  055%=      5-min Rain = 0
KQU1 170321Z 21011KT 10/01 A2986 RMK A01 T00970010  RH  055%=      5-min Rain = 0
KQU1 170322Z 20010KT 10/01 A2986 RMK A01 T00960011  RH  055%=      5-min Rain = 0
KQU1 170323Z 20011KT 10/01 A2986 RMK A01 T00960011  RH  055%=      5-min Rain = 0
KQU1 170324Z 20011KT 10/01 A2986 RMK A01 T00950010  RH  055%=      5-min Rain = 0
KQU1 170325Z 20012KT 10/01 A2986 RMK A01 T00950010  RH  055%=      5-min Rain = 0
KQU1 170326Z 20011KT 10/01 A2986 RMK A01 T00950010  RH  056%=      5-min Rain = 0
KQU1 170327Z 20011KT 10/01 A2986 RMK A01 T00950010  RH  055%=      5-min Rain = 0
KQU1 170328Z 20012KT 09/01 A2986 RMK A01 T00940010  RH  056%=      5-min Rain = 0
KQU1 170329Z 20011KT 09/01 A2985 RMK A01 T00940010  RH  055%=      5-min Rain = 0
KQU1 170330Z 20012KT 09/01 A2985 RMK A01 T00940009  RH  055%=      5-min Rain = 0
KQU1 170331Z 20011KT 09/01 A2985 RMK A01 T00940009  RH  056%=      5-min Rain = 0
KQU1 170332Z 21011KT 09/01 A2986 RMK A01 T00930010  RH  056%=      5-min Rain = 0
KQU1 170333Z 20011KT 09/01 A2985 RMK A01 T00930010  RH  056%=      5-min Rain = 0
KQU1 170334Z 20011KT 09/01 A2985 RMK A01 T00920010  RH  057%=      5-min Rain = 0
KQU1 170335Z 20010KT 09/01 A2986 RMK A01 T00910010  RH  057%=      5-min Rain = 0
KQU1 170336Z 20011KT 09/01 A2986 RMK A01 T00900011  RH  058%=      5-min Rain = 0
KQU1 170337Z 20011KT 09/01 A2986 RMK A01 T00890010  RH  058%=      5-min Rain = 0
KQU1 170338Z 20010KT 09/01 A2986 RMK A01 T00880011  RH  058%=      5-min Rain = 0
KQU1 170339Z 20010KT 09/01 A2986 RMK A01 T00870011  RH  059%=      5-min Rain = 0
KQU1 170340Z 20009KT 09/01 A2986 RMK A01 T00860012  RH  059%=      5-min Rain = 0
KQU1 170341Z 20010KT 09/01 A2986 RMK A01 T00850011  RH  060%=      5-min Rain = 0
KQU1 170342Z 20010KT 09/01 A2986 RMK A01 T00850012  RH  060%=      5-min Rain = 0
KQU1 170343Z 20010KT 09/01 A2986 RMK A01 T00850011  RH  060%=      5-min Rain = 0
KQU1 170344Z 20010KT 09/01 A2986 RMK A01 T00850011  RH  060%=      5-min Rain = 0
KQU1 170345Z 20010KT 08/01 A2986 RMK A01 T00840011  RH  060%=      5-min Rain = 0
KQU1 170346Z 20009KT 08/01 A2986 RMK A01 T00840010  RH  060%=      5-min Rain = 0
KQU1 170347Z 20010KT 08/01 A2986 RMK A01 T00840010  RH  060%=      5-min Rain = 0
KQU1 170348Z 20010KT 08/01 A2986 RMK A01 T00840011  RH  060%=      5-min Rain = 0
KQU1 170349Z 20010KT 08/01 A2986 RMK A01 T00840010  RH  060%=      5-min Rain = 0
KQU1 170350Z 20009KT 08/01 A2986 RMK A01 T00840010  RH  060%=      5-min Rain = 0
KQU1 170351Z 21010KT 09/01 A2986 RMK A01 T00850009  RH  059%=      5-min Rain = 0
KQU1 170352Z 21009KT 09/01 A2986 RMK A01 T00850009  RH  059%=      5-min Rain = 0
KQU1 170353Z 21010KT 09/01 A2986 RMK A01 T00860008  RH  058%=      5-min Rain = 0
KQU1 170354Z 20009KT 09/01 A2986 RMK A01 T00860009  RH  058%=      5-min Rain = 0
KQU1 170355Z 20010KT 09/01 A2986 RMK A01 T00860009  RH  058%=      5-min Rain = 0
KQU1 170356Z 21009KT 09/01 A2986 RMK A01 T00860009  RH  058%=      5-min Rain = 0
KQU1 170357Z 20010KT 09/01 A2986 RMK A01 T00860009  RH  058%=      5-min Rain = 0
KQU1 170358Z 20009KT 09/01 A2986 RMK A01 T00860009  RH  058%=      5-min Rain = 0
KQU1 170359Z 20009KT 09/01 A2986 RMK A01 T00850009  RH  059%=      5-min Rain = 0
KQU1 170400Z 21010KT 09/01 A2986 RMK A01 T00850009  RH  059%=      5-min Rain = 0
KQU1 170401Z 20009KT 09/01 A2985 RMK A01 T00850008  RH  058%=      5-min Rain = 0
KQU1 170402Z 20010KT 09/01 A2985 RMK A01 T00850008  RH  058%=      5-min Rain = 0
KQU1 170403Z 20011KT 09/01 A2985 RMK A01 T00850008  RH  058%=      5-min Rain = 0
KQU1 170404Z 20011KT 09/01 A2985 RMK A01 T00860008  RH  058%=      5-min Rain = 0
KQU1 170405Z 20012KT 09/01 A2985 RMK A01 T00850008  RH  058%=      5-min Rain = 0
KQU1 170406Z 20011KT 09/01 A2985 RMK A01 T00860008  RH  058%=      5-min Rain = 0
KQU1 170407Z 20012KT 09/01 A2985 RMK A01 T00860007  RH  057%=      5-min Rain = 0
KQU1 170408Z 20012KT 09/01 A2985 RMK A01 T00870007  RH  057%=      5-min Rain = 0
KQU1 170409Z 20012KT 09/01 A2985 RMK A01 T00870007  RH  057%=      5-min Rain = 0
KQU1 170410Z 20012KT 09/01 A2985 RMK A01 T00870007  RH  057%=      5-min Rain = 0
KQU1 170411Z 20013KT 09/01 A2985 RMK A01 T00870007  RH  057%=      5-min Rain = 0
KQU1 170412Z 20013KT 09/01 A2985 RMK A01 T00870006  RH  057%=      5-min Rain = 0
KQU1 170413Z 20013KT 09/01 A2985 RMK A01 T00870006  RH  057%=      5-min Rain = 0
KQU1 170414Z 21013KT 09/01 A2985 RMK A01 T00880005  RH  056%=      5-min Rain = 0
KQU1 170415Z 21013KT 09/01 A2985 RMK A01 T00890005  RH  056%=      5-min Rain = 0
KQU1 170416Z 20012KT 09/01 A2985 RMK A01 T00890005  RH  056%=      5-min Rain = 0
KQU1 170417Z 20011KT 09/01 A2985 RMK A01 T00890006  RH  056%=      5-min Rain = 0
KQU1 170418Z 21012KT 09/01 A2985 RMK A01 T00880005  RH  056%=      5-min Rain = 0
KQU1 170419Z 21012KT 09/01 A2985 RMK A01 T00880005  RH  056%=      5-min Rain = 0
KQU1 170420Z 20011KT 09/01 A2985 RMK A01 T00880005  RH  056%=      5-min Rain = 0
KQU1 170421Z 20012KT 09/01 A2985 RMK A01 T00880005  RH  056%=      5-min Rain = 0
KQU1 170422Z 21011KT 09/01 A2985 RMK A01 T00870005  RH  056%=      5-min Rain = 0
KQU1 170423Z 21011KT 09/00 A2985 RMK A01 T00870004  RH  056%=      5-min Rain = 0
KQU1 170424Z 21010KT 09/01 A2985 RMK A01 T00870005  RH  056%=      5-min Rain = 0
KQU1 170425Z 21011KT 09/00 A2985 RMK A01 T00860004  RH  056%=      5-min Rain = 0
KQU1 170426Z 21011KT 09/00 A2985 RMK A01 T00860004  RH  057%=      5-min Rain = 0
KQU1 170427Z 21011KT 09/00 A2985 RMK A01 T00860004  RH  056%=      5-min Rain = 0
KQU1 170428Z 21010KT 09/00 A2985 RMK A01 T00860004  RH  056%=      5-min Rain = 0
KQU1 170429Z 21010KT 09/00 A2985 RMK A01 T00860004  RH  056%=      5-min Rain = 0
KQU1 170430Z 21010KT 09/00 A2985 RMK A01 T00860004  RH  056%=      5-min Rain = 0
KQU1 170431Z 21011KT 09/00 A2985 RMK A01 T00860004  RH  056%=      5-min Rain = 0
KQU1 170432Z 21011KT 09/00 A2984 RMK A01 T00860004  RH  056%=      5-min Rain = 0
KQU1 170433Z 21011KT 09/00 A2984 RMK A01 T00860003  RH  056%=      5-min Rain = 0
KQU1 170434Z 21011KT 09/00 A2984 RMK A01 T00870003  RH  056%=      5-min Rain = 0
KQU1 170435Z 21011KT 09/00 A2984 RMK A01 T00870003  RH  056%=      5-min Rain = 0
KQU1 170436Z 21011KT 09/00 A2984 RMK A01 T00870003  RH  055%=      5-min Rain = 0
KQU1 170437Z 21011KT 09/00 A2984 RMK A01 T00870003  RH  055%=      5-min Rain = 0
KQU1 170438Z 21011KT 09/00 A2984 RMK A01 T00870003  RH  056%=      5-min Rain = 0
KQU1 170439Z 21011KT 09/00 A2984 RMK A01 T00870003  RH  055%=      5-min Rain = 0
KQU1 170440Z 21011KT 09/00 A2984 RMK A01 T00870003  RH  055%=      5-min Rain = 0
KQU1 170441Z 21010KT 09/00 A2984 RMK A01 T00880003  RH  055%=      5-min Rain = 0
KQU1 170442Z 21010KT 09/00 A2984 RMK A01 T00870003  RH  055%=      5-min Rain = 0
KQU1 170443Z 21010KT 09/00 A2984 RMK A01 T00870003  RH  056%=      5-min Rain = 0
KQU1 170444Z 21010KT 09/00 A2984 RMK A01 T00860003  RH  056%=      5-min Rain = 0
KQU1 170445Z 21010KT 09/00 A2984 RMK A01 T00860004  RH  056%=      5-min Rain = 0
KQU1 170446Z 21010KT 09/00 A2984 RMK A01 T00850004  RH  057%=      5-min Rain = 0
KQU1 170447Z 21010KT 09/00 A2984 RMK A01 T00850004  RH  057%=      5-min Rain = 0
KQU1 170448Z 21010KT 08/00 A2984 RMK A01 T00840004  RH  057%=      5-min Rain = 0
KQU1 170449Z 21011KT 08/00 A2984 RMK A01 T00840004  RH  057%=      5-min Rain = 0
KQU1 170450Z 20011KT 08/00 A2984 RMK A01 T00840004  RH  057%=      5-min Rain = 0
KQU1 170451Z 20010KT 08/00 A2984 RMK A01 T00840004  RH  057%=      5-min Rain = 0
KQU1 170452Z 20012KT 08/00 A2984 RMK A01 T00840003  RH  057%=      5-min Rain = 0
KQU1 170453Z 20011KT 08/00 A2984 RMK A01 T00840004  RH  057%=      5-min Rain = 0
KQU1 170454Z 20011KT 08/00 A2984 RMK A01 T00840004  RH  057%=      5-min Rain = 0
KQU1 170455Z 20012KT 08/00 A2984 RMK A01 T00830004  RH  057%=      5-min Rain = 0
KQU1 170456Z 20011KT 08/00 A2984 RMK A01 T00820004  RH  058%=      5-min Rain = 0
KQU1 170457Z 20010KT 08/00 A2984 RMK A01 T00810004  RH  058%=      5-min Rain = 0
KQU1 170458Z 20010KT 08/01 A2984 RMK A01 T00800005  RH  059%=      5-min Rain = 0
KQU1 170459Z 20011KT 08/00 A2984 RMK A01 T00780004  RH  059%=      5-min Rain = 0
KQU1 170500Z 20011KT 08/00 A2984 RMK A01 T00780004  RH  059%=      5-min Rain = 0
KQU1 170501Z 21012KT 08/00 A2984 RMK A01 T00780003  RH  059%=      5-min Rain = 0
KQU1 170502Z 21011KT 08/00 A2984 RMK A01 T00780003  RH  059%=      5-min Rain = 0
KQU1 170503Z 21011KT 08/00 A2984 RMK A01 T00790003  RH  059%=      5-min Rain = 0
KQU1 170504Z 21012KT 08/00 A2983 RMK A01 T00800003  RH  058%=      5-min Rain = 0
KQU1 170505Z 21011KT 08/00 A2983 RMK A01 T00810003  RH  058%=      5-min Rain = 0
KQU1 170506Z 21011KT 08/00 A2983 RMK A01 T00820003  RH  058%=      5-min Rain = 0
KQU1 170507Z 21011KT 08/00 A2983 RMK A01 T00830003  RH  057%=      5-min Rain = 0
KQU1 170508Z 21012KT 08/00 A2983 RMK A01 T00830003  RH  057%=      5-min Rain = 0
KQU1 170509Z 21012KT 08/00 A2983 RMK A01 T00830003  RH  057%=      5-min Rain = 0
KQU1 170510Z 21012KT 08/00 A2983 RMK A01 T00840003  RH  057%=      5-min Rain = 0
KQU1 170511Z 21012KT 08/00 A2983 RMK A01 T00840002  RH  056%=      5-min Rain = 0
KQU1 170512Z 21012KT 09/00 A2983 RMK A01 T00850002  RH  056%=      5-min Rain = 0
KQU1 170513Z 21012KT 09/00 A2983 RMK A01 T00850002  RH  056%=      5-min Rain = 0
KQU1 170514Z 21011KT 09/00 A2983 RMK A01 T00850001  RH  056%=      5-min Rain = 0
KQU1 170515Z 21011KT 09/00 A2983 RMK A01 T00850001  RH  055%=      5-min Rain = 0
KQU1 170516Z 20012KT 09/00 A2983 RMK A01 T00850001  RH  056%=      5-min Rain = 0
KQU1 170517Z 20012KT 09/00 A2983 RMK A01 T00850001  RH  055%=      5-min Rain = 0
KQU1 170518Z 20011KT 09/00 A2983 RMK A01 T00850001  RH  055%=      5-min Rain = 0
KQU1 170519Z 20012KT 09/00 A2983 RMK A01 T00850000  RH  055%=      5-min Rain = 0
KQU1 170520Z 20012KT 09/00 A2983 RMK A01 T00850000  RH  055%=      5-min Rain = 0
KQU1 170521Z 20012KT 09/00 A2983 RMK A01 T008500-0  RH  055%=      5-min Rain = 0
KQU1 170522Z 21011KT 09/00 A2983 RMK A01 T008500-0  RH  055%=      5-min Rain = 0
KQU1 170523Z 21012KT 09/00 A2983 RMK A01 T008500-0  RH  055%=      5-min Rain = 0
KQU1 170524Z 20011KT 08/M00 A2983 RMK A01 T00841001  RH  055%=      5-min Rain = 0
KQU1 170525Z 20011KT 08/M00 A2983 RMK A01 T00841001  RH  055%=      5-min Rain = 0
KQU1 170526Z 21011KT 08/M00 A2983 RMK A01 T00841001  RH  055%=      5-min Rain = 0
KQU1 170527Z 21011KT 08/M00 A2983 RMK A01 T00841002  RH  055%=      5-min Rain = 0
KQU1 170528Z 21012KT 08/M00 A2983 RMK A01 T00841002  RH  055%=      5-min Rain = 0
KQU1 170529Z 21011KT 08/M00 A2983 RMK A01 T00841002  RH  055%=      5-min Rain = 0
KQU1 170530Z 21011KT 08/M00 A2983 RMK A01 T00841003  RH  054%=      5-min Rain = 0
KQU1 170531Z 21011KT 08/M00 A2983 RMK A01 T00841003  RH  054%=      5-min Rain = 0
KQU1 170532Z 21011KT 09/M00 A2983 RMK A01 T00851003  RH  054%=      5-min Rain = 0
KQU1 170533Z 21012KT 08/M00 A2983 RMK A01 T00841003  RH  054%=      5-min Rain = 0
KQU1 170534Z 21012KT 09/M00 A2983 RMK A01 T00851004  RH  054%=      5-min Rain = 0
KQU1 170535Z 21012KT 09/M00 A2983 RMK A01 T00861004  RH  053%=      5-min Rain = 0
KQU1 170536Z 21012KT 09/M00 A2983 RMK A01 T00861004  RH  053%=      5-min Rain = 0
KQU1 170537Z 21013KT 09/M00 A2983 RMK A01 T00861004  RH  053%=      5-min Rain = 0
KQU1 170538Z 21012KT 09/M00 A2983 RMK A01 T00871004  RH  053%=      5-min Rain = 0
KQU1 170539Z 21014KT 09/M01 A2983 RMK A01 T00871005  RH  052%=      5-min Rain = 0
KQU1 170540Z 21012KT 09/M00 A2983 RMK A01 T00881004  RH  052%=      5-min Rain = 0
KQU1 170541Z 21013KT 09/M00 A2983 RMK A01 T00881004  RH  052%=      5-min Rain = 0
KQU1 170542Z 21013KT 09/M01 A2983 RMK A01 T00881005  RH  052%=      5-min Rain = 0
KQU1 170543Z 20013KT 09/M00 A2983 RMK A01 T00881004  RH  052%=      5-min Rain = 0
KQU1 170544Z 20012KT 09/M00 A2983 RMK A01 T00881004  RH  053%=      5-min Rain = 0
KQU1 170545Z 20011KT 09/M00 A2983 RMK A01 T00871003  RH  053%=      5-min Rain = 0
KQU1 170546Z 20013KT 09/M00 A2983 RMK A01 T00861004  RH  053%=      5-min Rain = 0
KQU1 170547Z 21013KT 09/M01 A2983 RMK A01 T00861005  RH  053%=      5-min Rain = 0
KQU1 170548Z 20014KT 09/M01 A2983 RMK A01 T00871005  RH  053%=      5-min Rain = 0
KQU1 170549Z 20013KT 09/M00 A2983 RMK A01 T00871004  RH  053%=      5-min Rain = 0
KQU1 170550Z 21013KT 09/M01 A2983 RMK A01 T00861005  RH  053%=      5-min Rain = 0
KQU1 170551Z 21013KT 09/M01 A2983 RMK A01 T00861005  RH  053%=      5-min Rain = 0
KQU1 170552Z 21014KT 09/M01 A2983 RMK A01 T00861005  RH  053%=      5-min Rain = 0
KQU1 170553Z 21014KT 09/M01 A2983 RMK A01 T00871006  RH  052%=      5-min Rain = 0
KQU1 170554Z 21014KT 09/M01 A2983 RMK A01 T00871006  RH  052%=      5-min Rain = 0
KQU1 170555Z 21014KT 09/M01 A2983 RMK A01 T00871006  RH  052%=      5-min Rain = 0
KQU1 170556Z 21014KT 09/M01 A2983 RMK A01 T00881006  RH  052%=      5-min Rain = 0
KQU1 170557Z 21013KT 09/M01 A2983 RMK A01 T00881006  RH  052%=      5-min Rain = 0
KQU1 170558Z 21015KT 09/M01 A2982 RMK A01 T00881006  RH  052%=      5-min Rain = 0
KQU1 170559Z 21014KT 09/M01 A2982 RMK A01 T00891006  RH  051%=      5-min Rain = 0

Page generated in 0.0356 seconds.